NORTHRYDE Weather Reports


time (UTC)temp
C
wind
direction
speed
KPH
gust
KPH
rain 1hr
cm
rain 24hr
cm
rain mn
cm
humidity
%
barometer
mb
20260831040618 23 98 3.2 12.9 0.00 0.00 0.00 54 1029.5
20260831040551 23 74 3.2 12.9 0.00 0.00 0.00 54 1029.5
20260831040529 23 57 4.8 12.9 0.00 0.00 0.00 53 1029.6
20260831040209 23 88 6.4 16.1 0.00 0.00 0.00 53 1029.5
20260831040109 23 90 6.4 16.1 0.00 0.00 0.00 53 1029.5
20260831040010 23 120 4.8 16.1 0.00 0.00 0.00 53 1029.6
20260831035909 23 69 6.4 16.1 0.00 0.00 0.00 52 1029.5
20260831035712 23 98 4.8 16.1 0.00 0.00 0.00 53 1029.5
20260831035610 23 77 6.4 16.1 0.00 0.00 0.00 53 1029.5
20260831035513 23 128 9.7 16.1 0.00 0.00 0.00 53 1029.5
20260831035410 23 75 8.0 16.1 0.00 0.00 0.00 52 1029.6
20260831035320 23 100 4.8 16.1 0.00 0.00 0.00 53 1029.6
20260831035213 23 101 3.2 14.5 0.00 0.00 0.00 53 1029.6
20260831035109 23 94 1.6 14.5 0.00 0.00 0.00 53 1029.6
20260831035010 23 113 1.6 14.5 0.00 0.00 0.00 53 1029.7
20260831034912 23 86 3.2 14.5 0.00 0.00 0.00 53 1029.7
20260831034814 23 55 3.2 14.5 0.00 0.00 0.00 53 1029.7
20260831034711 23 82 3.2 14.5 0.00 0.00 0.00 52 1029.7
20260831034611 23 67 4.8 14.5 0.00 0.00 0.00 54 1029.6
20260831034509 23 52 8.0 14.5 0.00 0.00 0.00 53 1029.7
20260831034410 23 49 6.4 14.5 0.00 0.00 0.00 53 1029.7
20260831034311 23 111 6.4 14.5 0.00 0.00 0.00 54 1029.7
20260831034208 23 117 4.8 12.9 0.00 0.00 0.00 54 1029.7
20260831034109 23 55 3.2 12.9 0.00 0.00 0.00 54 1029.8
20260831034010 23 85 3.2 12.9 0.00 0.00 0.00 54 1029.7
20260831033910 23 53 3.2 12.9 0.00 0.00 0.00 55 1029.7
20260831033810 23 82 4.8 12.9 0.00 0.00 0.00 55 1029.7
20260831033710 23 52 4.8 12.9 0.00 0.00 0.00 54 1029.7
20260831033609 23 109 6.4 12.9 0.00 0.00 0.00 55 1029.7
20260831033515 23 94 8.0 12.9 0.00 0.00 0.00 55 1029.8
20260831033409 23 75 4.8 12.9 0.00 0.00 0.00 55 1029.8
20260831033309 23 92 3.2 12.9 0.00 0.00 0.00 54 1029.8
20260831033210 23 52 6.4 12.9 0.00 0.00 0.00 54 1029.8
20260831033124 23 98 6.4 12.9 0.00 0.00 0.00 54 1029.8
20260831033102 23 99 8.0 12.9 0.00 0.00 0.00 55 1029.9
20260831033035 23 101 8.0 11.3 0.00 0.00 0.00 54 1029.8
20260831033012 23 93 6.4 11.3 0.00 0.00 0.00 54 1029.8
20260831032713 23 121 6.4 12.9 0.00 0.00 0.00 55 1029.9
20260831032612 23 104 6.4 12.9 0.00 0.00 0.00 55 1029.8
20260831032510 23 101 6.4 12.9 0.00 0.00 0.00 55 1029.8
20260831032410 23 121 4.8 12.9 0.00 0.00 0.00 55 1029.9
20260831032310 23 118 3.2 12.9 0.00 0.00 0.00 55 1029.9
20260831032209 23 101 3.2 12.9 0.00 0.00 0.00 55 1029.9
20260831032121 23 162 6.4 12.9 0.00 0.00 0.00 55 1029.9
20260831032059 23 96 9.7 12.9 0.00 0.00 0.00 55 1029.9
20260831032031 23 89 6.4 12.9 0.00 0.00 0.00 54 1029.9
20260831032011 23 109 4.8 12.9 0.00 0.00 0.00 54 1030.0
20260831031706 23 108 4.8 11.3 0.00 0.00 0.00 55 1029.9
20260831031607 23 85 6.4 11.3 0.00 0.00 0.00 54 1029.9
20260831031506 23 81 6.4 11.3 0.00 0.00 0.00 54 1029.9
20260831031404 23 81 4.8 11.3 0.00 0.00 0.00 54 1030.1
20260831031300 23 94 4.8 11.3 0.00 0.00 0.00 54 1030.0
20260831031200 23 104 4.8 9.7 0.00 0.00 0.00 55 1030.0
20260831031116 23 68 4.8 11.3 0.00 0.00 0.00 55 1030.0
20260831031053 23 105 3.2 12.9 0.00 0.00 0.00 54 1029.9
20260831031026 23 67 3.2 14.5 0.00 0.00 0.00 54 1029.9
20260831031003 23 63 4.8 14.5 0.00 0.00 0.00 53 1030.0
20260831030655 23 123 3.2 14.5 0.00 0.00 0.00 52 1029.9
20260831030548 23 51 3.2 14.5 0.00 0.00 0.00 52 1030.0
20260831030511 23 63 4.8 14.5 0.00 0.00 0.00 52 1030.0
20260831030441 23 103 6.4 14.5 0.00 0.00 0.00 52 1030.1
20260831030342 23 113 9.7 14.5 0.00 0.00 0.00 53 1030.1
20260831030105 23 120 9.7 14.5 0.00 0.00 0.00 54 1030.1
20260831030044 23 103 4.8 12.9 0.00 0.00 0.00 55 1030.1
20260831030019 23 130 3.2 9.7 0.00 0.00 0.00 56 1030.1
20260831025953 23 111 1.6 11.3 0.00 0.00 0.00 57 1030.2
20260831025638 23 155 0.0 11.3 0.00 0.00 0.00 56 1030.1
20260831025537 23 184 0.0 11.3 0.00 0.00 0.00 56 1030.2
20260831025438 23 184 1.6 11.3 0.00 0.00 0.00 57 1030.2
20260831025339 23 184 3.2 16.1 0.00 0.00 0.00 57 1030.3
20260831025138 23 68 3.2 16.1 0.00 0.00 0.00 57 1030.3
20260831025040 23 118 4.8 16.1 0.00 0.00 0.00 57 1030.3
20260831024938 23 113 6.4 16.1 0.00 0.00 0.00 58 1030.4
20260831024838 23 112 4.8 16.1 0.00 0.00 0.00 57 1030.4
20260831024637 23 65 6.4 16.1 0.00 0.00 0.00 56 1030.3
20260831024537 23 126 8.0 16.1 0.00 0.00 0.00 55 1030.4
20260831024434 23 69 6.4 16.1 0.00 0.00 0.00 55 1030.4
20260831024331 23 113 3.2 12.9 0.00 0.00 0.00 55 1030.3
20260831024229 23 132 6.4 12.9 0.00 0.00 0.00 55 1030.5
20260831024129 23 78 6.4 12.9 0.00 0.00 0.00 55 1030.4
20260831024031 23 115 6.4 12.9 0.00 0.00 0.00 55 1030.4
20260831023932 23 144 8.0 12.9 0.00 0.00 0.00 55 1030.4
20260831023817 23 109 8.0 12.9 0.00 0.00 0.00 55 1030.5
20260831023718 23 79 6.4 12.9 0.00 0.00 0.00 56 1030.5
20260831023617 23 144 4.8 12.9 0.00 0.00 0.00 56 1030.4
20260831023517 23 158 4.8 12.9 0.00 0.00 0.00 55 1030.5
20260831023411 23 159 4.8 12.9 0.00 0.00 0.00 55 1030.4
20260831023310 23 153 4.8 12.9 0.00 0.00 0.00 54 1030.4
20260831023210 23 168 6.4 12.9 0.00 0.00 0.00 54 1030.4
20260831023111 23 131 3.2 12.9 0.00 0.00 0.00 53 1030.5
20260831023011 23 136 3.2 12.9 0.00 0.00 0.00 52 1030.5
20260831022910 23 166 3.2 12.9 0.00 0.00 0.00 50 1030.5
20260831022811 23 159 1.6 12.9 0.00 0.00 0.00 50 1030.6
20260831022709 23 159 3.2 12.9 0.00 0.00 0.00 50 1030.5
20260831022610 23 103 6.4 12.9 0.00 0.00 0.00 50 1030.7
20260831022509 23 126 6.4 12.9 0.00 0.00 0.00 50 1030.6
20260831022414 23 119 3.2 12.9 0.00 0.00 0.00 50 1030.6
20260831022311 23 132 1.6 11.3 0.00 0.00 0.00 51 1030.7
20260831022211 23 115 1.6 11.3 0.00 0.00 0.00 51 1030.7
20260831022115 23 156 3.2 11.3 0.00 0.00 0.00 52 1030.6
20260831022011 23 155 4.8 11.3 0.00 0.00 0.00 51 1030.7
20260831021909 23 171 3.2 11.3 0.00 0.00 0.00 51 1030.7
20260831021811 23 114 3.2 8.0 0.00 0.00 0.00 51 1030.8
20260831021710 23 92 3.2 8.0 0.00 0.00 0.00 51 1030.7
20260831021611 23 103 1.6 8.0 0.00 0.00 0.00 51 1030.8
20260831021504 23 71 1.6 8.0 0.00 0.00 0.00 51 1030.7
20260831021405 23 75 3.2 8.0 0.00 0.00 0.00 51 1030.8
20260831021304 23 128 3.2 8.0 0.00 0.00 0.00 52 1030.8
20260831021202 23 67 3.2 8.0 0.00 0.00 0.00 52 1030.8
20260831021102 23 77 3.2 6.4 0.00 0.00 0.00 53 1030.9
20260831020957 23 113 3.2 6.4 0.00 0.00 0.00 53 1030.8
20260831020856 23 117 1.6 6.4 0.00 0.00 0.00 53 1030.8
20260831020757 23 50 1.6 6.4 0.00 0.00 0.00 52 1030.9
20260831020653 23 203 3.2 6.4 0.00 0.00 0.00 52 1030.9
20260831020552 23 203 3.2 6.4 0.00 0.00 0.00 52 1030.9
20260831020440 23 171 1.6 9.7 0.00 0.00 0.00 53 1030.8
20260831020338 23 170 0.0 9.7 0.00 0.00 0.00 51 1030.9
20260831020138 23 170 3.2 9.7 0.00 0.00 0.00 51 1031.0
20260831020037 23 130 3.2 9.7 0.00 0.00 0.00 52 1031.0
20260831015938 23 114 1.6 9.7 0.00 0.00 0.00 52 1031.0
20260831015838 23 119 1.6 9.7 0.00 0.00 0.00 52 1031.0
20260831015741 23 135 1.6 9.7 0.00 0.00 0.00 52 1031.0
20260831015638 23 123 3.2 9.7 0.00 0.00 0.00 52 1031.0
20260831015537 23 128 3.2 9.7 0.00 0.00 0.00 53 1031.0
20260831015439 23 166 3.2 4.8 0.00 0.00 0.00 52 1031.1
20260831015338 23 100 3.2 4.8 0.00 0.00 0.00 52 1031.1
20260831015241 23 98 1.6 4.8 0.00 0.00 0.00 53 1031.1
20260831015138 22 30 3.2 4.8 0.00 0.00 0.00 54 1031.1
20260831015038 22 86 3.2 4.8 0.00 0.00 0.00 54 1031.1
20260831014938 22 108 1.6 6.4 0.00 0.00 0.00 53 1031.2
20260831014838 22 59 1.6 8.0 0.00 0.00 0.00 54 1031.1
20260831014737 22 76 1.6 8.0 0.00 0.00 0.00 53 1031.2
20260831014636 22 88 0.0 8.0 0.00 0.00 0.00 53 1031.2
20260831014531 22 38 1.6 8.0 0.00 0.00 0.00 53 1031.2
20260831014428 22 38 3.2 8.0 0.00 0.00 0.00 54 1031.3
20260831014326 22 38 3.2 8.0 0.00 0.00 0.00 54 1031.3
20260831014232 22 29 3.2 8.0 0.00 0.00 0.00 54 1031.3
20260831014126 22 55 4.8 8.0 0.00 0.00 0.00 54 1031.4
20260831014024 22 52 4.8 8.0 0.00 0.00 0.00 53 1031.4
20260831013921 22 51 3.2 8.0 0.00 0.00 0.00 53 1031.3
20260831013819 22 55 1.6 9.7 0.00 0.00 0.00 53 1031.4
20260831013617 22 313 3.2 9.7 0.00 0.00 0.00 52 1031.4
20260831013515 22 316 1.6 9.7 0.00 0.00 0.00 53 1031.5
20260831013414 22 336 0.0 11.3 0.00 0.00 0.00 53 1031.5
20260831013312 22 5 1.6 14.5 0.00 0.00 0.00 53 1031.5
20260831013116 21 41 3.2 14.5 0.00 0.00 0.00 54 1031.5
20260831013009 21 26 3.2 14.5 0.00 0.00 0.00 54 1031.5
20260831012909 21 43 3.2 14.5 0.00 0.00 0.00 55 1031.5
20260831012810 21 343 3.2 14.5 0.00 0.00 0.00 55 1031.6
20260831012612 21 17 6.4 14.5 0.00 0.00 0.00 56 1031.5
20260831012511 21 5 3.2 14.5 0.00 0.00 0.00 56 1031.7
20260831012409 21 342 1.6 14.5 0.00 0.00 0.00 56 1031.6
20260831012310 21 113 1.6 6.4 0.00 0.00 0.00 56 1031.6
20260831012113 21 154 3.2 6.4 0.00 0.00 0.00 55 1031.7
20260831012009 21 119 3.2 6.4 0.00 0.00 0.00 55 1031.6
20260831011911 21 111 3.2 6.4 0.00 0.00 0.00 55 1031.7
20260831011809 21 107 1.6 6.4 0.00 0.00 0.00 56 1031.8
20260831011605 21 19 1.6 6.4 0.00 0.00 0.00 57 1031.7
20260831011504 21 19 1.6 6.4 0.00 0.00 0.00 58 1031.6
20260831011404 21 282 1.6 4.8 0.00 0.00 0.00 57 1031.7
20260831011259 21 282 1.6 4.8 0.00 0.00 0.00 58 1031.7
20260831011200 21 287 1.6 4.8 0.00 0.00 0.00 58 1031.6
20260831011054 21 286 1.6 6.4 0.00 0.00 0.00 58 1031.5
20260831010954 21 0 0.0 6.4 0.00 0.00 0.00 59 1031.7
20260831010855 21 5 1.6 6.4 0.00 0.00 0.00 59 1031.6
20260831010749 21 5 1.6 6.4 0.00 0.00 0.00 59 1031.7
20260831010650 20 352 1.6 6.4 0.00 0.00 0.00 59 1031.8
20260831010543 20 302 1.6 6.4 0.00 0.00 0.00 60 1031.7
20260831010437 20 305 1.6 6.4 0.00 0.00 0.00 60 1031.9
20260831010338 20 275 3.2 6.4 0.00 0.00 0.00 60 1031.8
20260831010239 20 265 1.6 6.4 0.00 0.00 0.00 60 1031.8
20260831010137 20 279 1.6 6.4 0.00 0.00 0.00 60 1031.8
20260831010037 20 284 3.2 6.4 0.00 0.00 0.00 60 1031.8
20260831005937 20 287 3.2 6.4 0.00 0.00 0.00 61 1031.8
20260831005837 20 29 3.2 6.4 0.00 0.00 0.00 61 1031.7
20260831005744 20 15 1.6 6.4 0.00 0.00 0.00 61 1031.8
20260831005637 20 29 1.6 6.4 0.00 0.00 0.00 61 1031.8
20260831005537 20 0 3.2 6.4 0.00 0.00 0.00 61 1031.8
20260831005438 20 352 3.2 6.4 0.00 0.00 0.00 61 1031.9
20260831005337 20 317 3.2 6.4 0.00 0.00 0.00 61 1031.9
20260831005244 20 319 3.2 6.4 0.00 0.00 0.00 61 1031.9
20260831005137 20 311 3.2 6.4 0.00 0.00 0.00 61 1031.8
20260831005045 20 313 3.2 6.4 0.00 0.00 0.00 61 1031.8
20260831005019 20 327 3.2 6.4 0.00 0.00 0.00 62 1031.8
20260831005000 20 319 3.2 6.4 0.00 0.00 0.00 62 1031.8
20260831004940 20 312 1.6 4.8 0.00 0.00 0.00 63 1031.8
20260831004633 20 53 3.2 4.8 0.00 0.00 0.00 63 1031.8
20260831004530 19 89 3.2 4.8 0.00 0.00 0.00 64 1031.8
20260831004431 19 13 1.6 4.8 0.00 0.00 0.00 64 1031.8
20260831004326 19 198 0.0 4.8 0.00 0.00 0.00 64 1031.8
20260831004231 19 213 1.6 6.4 0.00 0.00 0.00 64 1031.9
20260831004127 19 220 1.6 6.4 0.00 0.00 0.00 65 1032.0
20260831004026 19 261 1.6 6.4 0.00 0.00 0.00 65 1032.0
20260831003925 19 261 1.6 6.4 0.00 0.00 0.00 65 1032.0
20260831003825 19 261 1.6 6.4 0.00 0.00 0.00 65 1032.1
20260831003728 19 258 3.2 6.4 0.00 0.00 0.00 65 1032.1
20260831003620 18 258 3.2 6.4 0.00 0.00 0.00 65 1032.1
20260831003512 18 303 3.2 6.4 0.00 0.00 0.00 65 1032.1
20260831003410 18 304 3.2 6.4 0.00 0.00 0.00 65 1032.1
20260831003310 18 299 1.6 6.4 0.00 0.00 0.00 65 1032.0
20260831003111 18 355 0.0 4.8 0.00 0.00 0.00 66 1032.1
20260831003011 18 312 1.6 4.8 0.00 0.00 0.00 66 1032.0
20260831002913 18 312 1.6 4.8 0.00 0.00 0.00 66 1032.1
20260831002813 18 312 1.6 4.8 0.00 0.00 0.00 66 1032.1
20260831002610 18 312 0.0 4.8 0.00 0.00 0.00 68 1032.0
20260831002542 18 312 0.0 4.8 0.00 0.00 0.00 68 1032.0
20260831002518 18 312 1.6 4.8 0.00 0.00 0.00 68 1032.0
20260831002459 18 312 3.2 4.8 0.00 0.00 0.00 68 1032.1
20260831002426 18 312 3.2 4.8 0.00 0.00 0.00 68 1032.1
20260831002114 18 314 3.2 4.8 0.00 0.00 0.00 68 1032.2
20260831002010 18 286 3.2 4.8 0.00 0.00 0.00 68 1032.1
20260831001910 18 319 3.2 6.4 0.00 0.00 0.00 68 1032.1
20260831001807 18 300 3.2 9.7 0.00 0.00 0.00 68 1032.1
20260831001708 18 292 1.6 9.7 0.00 0.00 0.00 68 1032.1
20260831001600 18 205 1.6 9.7 0.00 0.00 0.00 69 1032.1
20260831001524 18 263 1.6 9.7 0.00 0.00 0.00 69 1032.0
20260831001502 18 294 3.2 9.7 0.00 0.00 0.00 69 1032.1
20260831001441 18 288 1.6 9.7 0.00 0.00 0.00 69 1032.0
20260831001150 17 299 3.2 9.7 0.00 0.00 0.00 69 1032.1
20260831001050 17 247 3.2 9.7 0.00 0.00 0.00 70 1032.0
20260831000949 17 296 3.2 9.7 0.00 0.00 0.00 70 1032.1
20260831000847 17 275 1.6 4.8 0.00 0.00 0.00 70 1032.0
20260831000744 17 294 0.0 4.8 0.00 0.00 0.00 70 1032.1
20260831000645 17 300 0.0 4.8 0.00 0.00 0.00 70 1031.9
20260831000543 17 300 1.6 4.8 0.00 0.00 0.00 70 1032.0
20260831000439 17 303 3.2 4.8 0.00 0.00 0.00 70 1032.0
20260831000340 17 300 3.2 4.8 0.00 0.00 0.00 70 1032.0
20260831000241 17 283 1.6 4.8 0.00 0.00 0.00 70 1032.1
20260831000137 17 317 3.2 4.8 0.00 0.00 0.00 70 1032.0
20260831000037 17 312 3.2 4.8 0.00 0.00 0.00 71 1032.0
20260830235939 17 329 3.2 6.4 0.00 0.00 0.00 72 1032.0
20260830235840 17 329 1.6 6.4 0.00 0.00 0.00 72 1031.9
20260830235737 17 284 1.6 6.4 0.00 0.00 0.00 72 1031.9
20260830235640 17 279 0.0 6.4 0.00 0.00 0.00 72 1032.0
20260830235539 17 279 0.0 6.4 0.00 0.00 0.00 73 1032.0
20260830235438 17 279 1.6 6.4 0.00 0.00 0.00 73 1032.0
20260830235337 17 279 1.6 6.4 0.00 0.00 0.00 73 1031.9
20260830235237 17 276 1.6 6.4 0.00 0.00 0.00 73 1031.8
20260830235140 17 271 3.2 6.4 0.00 0.00 0.00 74 1031.9
20260830235042 16 248 3.2 6.4 0.00 0.00 0.00 74 1031.9
20260830235014 16 259 3.2 6.4 0.00 0.00 0.00 74 1031.9
20260830234954 16 270 1.6 6.4 0.00 0.00 0.00 74 1031.9
20260830234934 16 284 1.6 4.8 0.00 0.00 0.00 75 1031.9
20260830234639 16 284 1.6 4.8 0.00 0.00 0.00 75 1031.9
20260830234537 16 313 1.6 4.8 0.00 0.00 0.00 75 1031.9
20260830234438 16 344 3.2 4.8 0.00 0.00 0.00 76 1031.9
20260830234327 16 321 3.2 4.8 0.00 0.00 0.00 77 1031.9
20260830234222 16 313 1.6 4.8 0.00 0.00 0.00 78 1031.9
20260830234122 16 263 3.2 6.4 0.00 0.00 0.00 78 1031.9
20260830234019 16 263 3.2 6.4 0.00 0.00 0.00 78 1031.8
20260830233916 16 257 1.6 6.4 0.00 0.00 0.00 78 1031.9
20260830233816 16 268 1.6 6.4 0.00 0.00 0.00 79 1031.9
20260830233617 16 278 3.2 6.4 0.00 0.00 0.00 79 1031.9
20260830233510 16 263 3.2 6.4 0.00 0.00 0.00 80 1032.0
20260830233410 15 262 3.2 6.4 0.00 0.00 0.00 80 1032.0
20260830233311 15 260 3.2 6.4 0.00 0.00 0.00 80 1031.9
20260830233113 15 277 1.6 6.4 0.00 0.00 0.00 81 1032.0
20260830233009 15 280 1.6 6.4 0.00 0.00 0.00 81 1032.1
20260830232909 15 306 1.6 6.4 0.00 0.00 0.00 81 1031.9
20260830232809 15 209 3.2 6.4 0.00 0.00 0.00 82 1032.0
20260830232657 15 214 3.2 6.4 0.00 0.00 0.00 82 1031.9
20260830232638 15 216 1.6 6.4 0.00 0.00 0.00 83 1032.0
20260830232616 15 245 0.0 4.8 0.00 0.00 0.00 83 1032.0
20260830232329 15 245 1.6 4.8 0.00 0.00 0.00 83 1032.0
20260830232213 15 245 1.6 4.8 0.00 0.00 0.00 84 1031.9
20260830232151 15 255 0.0 4.8 0.00 0.00 0.00 84 1031.9
20260830232132 15 296 1.6 4.8 0.00 0.00 0.00 84 1032.0
20260830232114 15 296 3.2 4.8 0.00 0.00 0.00 85 1031.9
20260830231831 14 296 3.2 6.4 0.00 0.00 0.00 85 1031.9
20260830231801 14 288 1.6 6.4 0.00 0.00 0.00 86 1031.9
20260830231526 14 294 0.0 6.4 0.00 0.00 0.00 86 1031.8
20260830231502 14 290 0.0 6.4 0.00 0.00 0.00 86 1031.9
20260830231441 14 279 0.0 6.4 0.00 0.00 0.00 86 1031.8
20260830231157 14 279 1.6 6.4 0.00 0.00 0.00 87 1031.9
20260830231057 14 279 3.2 6.4 0.00 0.00 0.00 87 1031.9
20260830230952 14 280 3.2 6.4 0.00 0.00 0.00 87 1031.9
20260830230850 14 286 1.6 6.4 0.00 0.00 0.00 88 1031.9
20260830230750 13 290 1.6 4.8 0.00 0.00 0.00 88 1031.9
20260830230651 13 278 1.6 4.8 0.00 0.00 0.00 88 1031.9
20260830230539 13 298 0.0 6.4 0.00 0.00 0.00 88 1031.9
20260830230519 13 294 0.0 6.4 0.00 0.00 0.00 89 1031.9
20260830230454 13 294 1.6 6.4 0.00 0.00 0.00 89 1031.9
20260830230435 13 294 1.6 6.4 0.00 0.00 0.00 89 1031.9
20260830230137 13 288 1.6 6.4 0.00 0.00 0.00 90 1031.9
20260830230040 13 281 1.6 6.4 0.00 0.00 0.00 90 1032.0
20260830225939 13 271 1.6 6.4 0.00 0.00 0.00 90 1031.9
20260830225905 13 273 3.2 6.4 0.00 0.00 0.00 90 1032.0
20260830225737 13 277 1.6 6.4 0.00 0.00 0.00 90 1031.9
20260830225637 13 289 0.0 6.4 0.00 0.00 0.00 91 1032.0
20260830225539 13 287 0.0 4.8 0.00 0.00 0.00 91 1031.9
20260830225438 13 287 0.0 4.8 0.00 0.00 0.00 91 1032.0
20260830225337 13 287 0.0 4.8 0.00 0.00 0.00 91 1032.0
20260830225239 13 287 1.6 4.8 0.00 0.00 0.00 91 1032.0
20260830225137 13 287 1.6 4.8 0.00 0.00 0.00 91 1032.0
20260830225039 13 286 0.0 4.8 0.00 0.00 0.00 92 1032.0
20260830224938 13 227 0.0 4.8 0.00 0.00 0.00 92 1032.0
20260830224837 12 227 1.6 4.8 0.00 0.00 0.00 92 1032.1
20260830224738 12 227 1.6 4.8 0.00 0.00 0.00 92 1032.1
20260830224638 12 236 1.6 4.8 0.00 0.00 0.00 92 1032.2
20260830224532 12 228 0.0 4.8 0.00 0.00 0.00 92 1032.1
20260830224432 12 228 0.0 4.8 0.00 0.00 0.00 92 1032.2
20260830224324 12 207 0.0 4.8 0.00 0.00 0.00 92 1032.2
20260830224225 12 207 1.6 4.8 0.00 0.00 0.00 92 1032.2
20260830224124 12 183 3.2 4.8 0.00 0.00 0.00 92 1032.2
20260830224023 12 186 3.2 4.8 0.00 0.00 0.00 93 1032.3
20260830223920 12 208 3.2 4.8 0.00 0.00 0.00 93 1032.3
20260830223817 12 211 1.6 4.8 0.00 0.00 0.00 93 1032.2
20260830223614 12 279 0.0 4.8 0.00 0.00 0.00 93 1032.2
20260830223512 12 279 1.6 4.8 0.00 0.00 0.00 93 1032.2
20260830223410 12 279 1.6 4.8 0.00 0.00 0.00 93 1032.1
20260830223310 12 268 1.6 4.8 0.00 0.00 0.00 93 1032.2
20260830223113 12 281 3.2 4.8 0.00 0.00 0.00 93 1032.2
20260830223010 12 288 1.6 4.8 0.00 0.00 0.00 93 1032.2
20260830222910 12 284 0.0 4.8 0.00 0.00 0.00 94 1032.2
20260830222811 11 284 0.0 3.2 0.00 0.00 0.00 94 1032.2
20260830222612 11 217 0.0 1.6 0.00 0.00 0.00 94 1032.2
20260830222509 11 217 0.0 1.6 0.00 0.00 0.00 94 1032.2
20260830222408 11 248 0.0 1.6 0.00 0.00 0.00 94 1032.2
20260830222312 11 248 0.0 1.6 0.00 0.00 0.00 94 1032.2
20260830222113 11 290 0.0 0.0 0.00 0.00 0.00 94 1032.3
20260830222011 11 290 0.0 0.0 0.00 0.00 0.00 94 1032.2
20260830221909 11 290 0.0 0.0 0.00 0.00 0.00 94 1032.1
20260830221809 11 290 0.0 0.0 0.00 0.00 0.00 94 1032.2
20260830221608 11 290 0.0 4.8 0.00 0.00 0.00 94 1032.1
20260830221501 11 290 0.0 4.8 0.00 0.00 0.00 94 1032.1
20260830221359 11 290 0.0 4.8 0.00 0.00 0.00 94 1032.1
20260830221259 11 290 0.0 4.8 0.00 0.00 0.00 94 1032.1
20260830221148 11 290 0.0 4.8 0.00 0.00 0.00 94 1032.1
20260830221045 11 290 0.0 4.8 0.00 0.00 0.00 94 1032.1
20260830220944 11 290 0.0 4.8 0.00 0.00 0.00 94 1032.1
20260830220845 11 290 1.6 4.8 0.00 0.00 0.00 94 1032.1
20260830220741 11 290 3.2 4.8 0.00 0.00 0.00 94 1032.2
20260830220646 11 289 3.2 4.8 0.00 0.00 0.00 94 1032.0
20260830220544 11 280 1.6 3.2 0.00 0.00 0.00 94 1032.2
20260830220438 10 288 0.0 3.2 0.00 0.00 0.00 94 1032.0
20260830220341 10 277 0.0 3.2 0.00 0.00 0.00 95 1032.1
20260830220238 10 275 0.0 3.2 0.00 0.00 0.00 95 1032.0
20260830220141 10 275 0.0 3.2 0.00 0.00 0.00 95 1032.1
20260830220042 10 277 0.0 3.2 0.00 0.00 0.00 94 1032.0
20260830215937 10 267 0.0 0.0 0.00 0.00 0.00 94 1031.9
20260830215838 10 267 0.0 0.0 0.00 0.00 0.00 94 1032.0
20260830215738 10 267 0.0 0.0 0.00 0.00 0.00 94 1032.0
20260830215638 10 267 0.0 0.0 0.00 0.00 0.00 94 1032.0
20260830215539 10 267 0.0 0.0 0.00 0.00 0.00 94 1032.0
20260830215437 10 267 0.0 0.0 0.00 0.00 0.00 94 1032.1
20260830215339 10 267 0.0 0.0 0.00 0.00 0.00 94 1031.9
20260830215238 10 267 0.0 0.0 0.00 0.00 0.00 94 1031.9
20260830215138 10 267 0.0 0.0 0.00 0.00 0.00 94 1032.0
20260830215042 10 267 0.0 0.0 0.00 0.00 0.00 94 1031.9
20260830215015 10 267 0.0 0.0 0.00 0.00 0.00 94 1031.9
20260830214952 10 267 0.0 0.0 0.00 0.00 0.00 94 1031.9
20260830214932 10 267 0.0 0.0 0.00 0.00 0.00 94 1031.9
20260830214638 10 267 0.0 0.0 0.00 0.00 0.00 94 1031.8
20260830214539 10 267 0.0 0.0 0.00 0.00 0.00 94 1031.8
20260830214436 10 267 0.0 0.0 0.00 0.00 0.00 94 1031.8
20260830214334 10 267 0.0 0.0 0.00 0.00 0.00 94 1031.9
20260830214231 10 267 0.0 0.0 0.00 0.00 0.00 94 1031.9
20260830214122 10 267 0.0 0.0 0.00 0.00 0.00 94 1031.8
20260830214023 10 267 0.0 0.0 0.00 0.00 0.00 94 1031.9
20260830213921 10 267 0.0 0.0 0.00 0.00 0.00 94 1031.8
20260830213817 10 267 0.0 0.0 0.00 0.00 0.00 94 1032.0
20260830213616 10 267 0.0 0.0 0.00 0.00 0.00 94 1031.8
20260830213522 10 267 0.0 0.0 0.00 0.00 0.00 94 1031.8
20260830213412 10 267 0.0 0.0 0.00 0.00 0.00 94 1031.8
20260830213310 10 267 0.0 0.0 0.00 0.00 0.00 95 1031.8
20260830213113 10 267 0.0 0.0 0.00 0.00 0.00 94 1031.7
20260830213033 10 267 0.0 0.0 0.00 0.00 0.00 94 1031.8
20260830213013 9 267 0.0 0.0 0.00 0.00 0.00 95 1031.8
20260830212953 9 267 0.0 0.0 0.00 0.00 0.00 95 1031.8
20260830212926 9 267 0.0 0.0 0.00 0.00 0.00 95 1031.7
20260830212610 9 267 0.0 0.0 0.00 0.00 0.00 94 1031.6
20260830212518 9 267 0.0 0.0 0.00 0.00 0.00 94 1031.7
20260830212409 9 267 0.0 0.0 0.00 0.00 0.00 94 1031.7
20260830212311 9 267 0.0 0.0 0.00 0.00 0.00 94 1031.7
20260830212113 9 267 0.0 0.0 0.00 0.00 0.00 94 1031.7
20260830212014 9 267 0.0 0.0 0.00 0.00 0.00 94 1031.7
20260830211911 8 267 0.0 0.0 0.00 0.00 0.00 94 1031.8
20260830211811 8 267 0.0 0.0 0.00 0.00 0.00 94 1031.7
20260830211609 8 267 0.0 0.0 0.00 0.00 0.00 94 1031.7
20260830211515 8 267 0.0 0.0 0.00 0.00 0.00 94 1031.7
20260830211412 8 267 0.0 0.0 0.00 0.00 0.00 94 1031.7
20260830211313 8 267 0.0 0.0 0.00 0.00 0.00 94 1031.7
20260830211113 8 267 0.0 0.0 0.00 0.00 0.00 94 1031.6
20260830211009 8 267 0.0 0.0 0.00 0.00 0.00 94 1031.6
20260830210910 8 267 0.0 0.0 0.00 0.00 0.00 94 1031.6
20260830210808 8 267 0.0 0.0 0.00 0.00 0.00 94 1031.6
20260830210608 8 267 0.0 0.0 0.00 0.00 0.00 94 1031.6
20260830210512 8 267 0.0 0.0 0.00 0.00 0.00 94 1031.7
20260830210409 8 267 0.0 0.0 0.00 0.00 0.00 94 1031.7
20260830210312 8 267 0.0 0.0 0.00 0.00 0.00 94 1031.7
20260830210113 8 267 0.0 0.0 0.00 0.00 0.00 93 1031.6
20260830210038 8 267 0.0 0.0 0.00 0.00 0.00 94 1031.6
20260830210010 8 267 0.0 0.0 0.00 0.00 0.00 93 1031.6
20260830205951 8 267 0.0 0.0 0.00 0.00 0.00 93 1031.7
20260830205925 8 267 0.0 0.0 0.00 0.00 0.00 93 1031.5
20260830205608 8 267 0.0 0.0 0.00 0.00 0.00 93 1031.7
20260830205511 8 267 0.0 0.0 0.00 0.00 0.00 93 1031.6
20260830205410 8 267 0.0 0.0 0.00 0.00 0.00 93 1031.6
20260830205310 8 267 0.0 0.0 0.00 0.00 0.00 93 1031.6
20260830205112 8 267 0.0 0.0 0.00 0.00 0.00 93 1031.5
20260830205010 8 267 0.0 0.0 0.00 0.00 0.00 93 1031.5
20260830204912 8 267 0.0 0.0 0.00 0.00 0.00 93 1031.5
20260830204810 8 267 0.0 0.0 0.00 0.00 0.00 93 1031.5
20260830204611 8 267 0.0 0.0 0.00 0.00 0.00 93 1031.4
20260830204535 8 267 0.0 0.0 0.00 0.00 0.00 93 1031.3
20260830204507 8 267 0.0 0.0 0.00 0.00 0.00 93 1031.3
20260830204449 8 267 0.0 0.0 0.00 0.00 0.00 93 1031.4
20260830204206 8 267 0.0 0.0 0.00 0.00 0.00 93 1031.3
20260830204103 8 267 0.0 0.0 0.00 0.00 0.00 93 1031.4
20260830204020 8 267 0.0 0.0 0.00 0.00 0.00 93 1031.3
20260830203951 8 267 0.0 0.0 0.00 0.00 0.00 93 1031.3
20260830203931 8 267 0.0 0.0 0.00 0.00 0.00 93 1031.3
20260830203642 8 267 0.0 0.0 0.00 0.00 0.00 93 1031.3
20260830203537 8 267 0.0 0.0 0.00 0.00 0.00 93 1031.4
20260830203439 8 267 0.0 0.0 0.00 0.00 0.00 93 1031.4
20260830203336 8 267 0.0 0.0 0.00 0.00 0.00 93 1031.4
20260830203239 8 267 0.0 0.0 0.00 0.00 0.00 93 1031.2
20260830203139 8 267 0.0 0.0 0.00 0.00 0.00 93 1031.3
20260830203037 8 267 0.0 0.0 0.00 0.00 0.00 93 1031.2
20260830202937 8 267 0.0 0.0 0.00 0.00 0.00 93 1031.2
20260830202837 8 267 0.0 0.0 0.00 0.00 0.00 93 1031.2
20260830202737 8 267 0.0 0.0 0.00 0.00 0.00 93 1031.2
20260830202638 8 267 0.0 0.0 0.00 0.00 0.00 93 1031.2
20260830202538 8 267 0.0 0.0 0.00 0.00 0.00 93 1031.2
20260830202437 8 267 0.0 0.0 0.00 0.00 0.00 93 1031.3
20260830202339 8 267 0.0 0.0 0.00 0.00 0.00 93 1031.3
20260830202238 8 267 0.0 0.0 0.00 0.00 0.00 93 1031.2
20260830202137 8 267 0.0 0.0 0.00 0.00 0.00 93 1031.2
20260830202041 8 267 0.0 0.0 0.00 0.00 0.00 93 1031.3
20260830202023 8 267 0.0 0.0 0.00 0.00 0.00 93 1031.3
20260830201952 8 267 0.0 0.0 0.00 0.00 0.00 93 1031.2
20260830201933 8 267 0.0 0.0 0.00 0.00 0.00 93 1031.1
20260830201638 8 267 0.0 0.0 0.00 0.00 0.00 93 1031.2
20260830201536 8 267 0.0 0.0 0.00 0.00 0.00 93 1031.2
20260830201437 8 267 0.0 0.0 0.00 0.00 0.00 93 1031.1
20260830201336 8 267 0.0 0.0 0.00 0.00 0.00 93 1031.2
20260830201238 8 267 0.0 0.0 0.00 0.00 0.00 93 1031.2
20260830201136 8 267 0.0 0.0 0.00 0.00 0.00 93 1031.1
20260830201035 8 267 0.0 0.0 0.00 0.00 0.00 93 1031.1
20260830200935 8 267 0.0 0.0 0.00 0.00 0.00 93 1031.1
20260830200831 8 267 0.0 0.0 0.00 0.00 0.00 93 1031.1
20260830200722 8 267 0.0 0.0 0.00 0.00 0.00 93 1031.1
20260830200619 8 267 0.0 0.0 0.00 0.00 0.00 93 1031.1
20260830200511 8 267 0.0 0.0 0.00 0.00 0.00 93 1031.2
20260830200412 8 267 0.0 0.0 0.00 0.00 0.00 93 1031.1
20260830200311 8 267 0.0 0.0 0.00 0.00 0.00 93 1031.1
20260830200113 8 267 0.0 0.0 0.00 0.00 0.00 93 1031.0
20260830200010 8 267 0.0 0.0 0.00 0.00 0.00 93 1031.1
20260830195910 8 267 0.0 0.0 0.00 0.00 0.00 93 1031.0
20260830195810 8 267 0.0 0.0 0.00 0.00 0.00 93 1031.0
20260830195609 8 267 0.0 0.0 0.00 0.00 0.00 93 1030.9
20260830195511 8 267 0.0 0.0 0.00 0.00 0.00 93 1031.0
20260830195410 8 267 0.0 0.0 0.00 0.00 0.00 93 1030.9
20260830195310 8 267 0.0 0.0 0.00 0.00 0.00 93 1031.0
20260830195120 8 267 0.0 0.0 0.00 0.00 0.00 93 1031.0
20260830195009 8 267 0.0 0.0 0.00 0.00 0.00 93 1031.0
20260830194911 8 267 0.0 0.0 0.00 0.00 0.00 93 1031.0
20260830194809 8 267 0.0 0.0 0.00 0.00 0.00 93 1031.0
20260830194610 8 267 0.0 0.0 0.00 0.00 0.00 93 1030.9
20260830194509 8 267 0.0 0.0 0.00 0.00 0.00 93 1031.0
20260830194409 8 267 0.0 0.0 0.00 0.00 0.00 93 1031.0
20260830194309 8 267 0.0 0.0 0.00 0.00 0.00 93 1030.9
20260830194112 8 267 0.0 0.0 0.00 0.00 0.00 93 1030.9
20260830194012 8 267 0.0 0.0 0.00 0.00 0.00 93 1030.8
20260830193909 8 267 0.0 0.0 0.00 0.00 0.00 93 1030.8
20260830193813 8 267 0.0 0.0 0.00 0.00 0.00 93 1030.8
20260830193610 8 267 0.0 0.0 0.00 0.00 0.00 93 1030.9
20260830193541 8 267 0.0 0.0 0.00 0.00 0.00 93 1030.8
20260830193518 8 267 0.0 0.0 0.00 0.00 0.00 93 1030.8
20260830193452 8 267 0.0 0.0 0.00 0.00 0.00 93 1030.8
20260830193426 8 267 0.0 0.0 0.00 0.00 0.00 93 1030.8
20260830193112 8 267 0.0 0.0 0.00 0.00 0.00 93 1030.8
20260830193011 8 267 0.0 0.0 0.00 0.00 0.00 92 1030.7
20260830192909 8 267 0.0 0.0 0.00 0.00 0.00 92 1030.7
20260830192809 8 267 0.0 0.0 0.00 0.00 0.00 93 1030.7
20260830192610 8 267 0.0 0.0 0.00 0.00 0.00 93 1030.7
20260830192513 8 267 0.0 0.0 0.00 0.00 0.00 93 1030.7
20260830192409 8 267 0.0 0.0 0.00 0.00 0.00 93 1030.6
20260830192311 8 267 0.0 0.0 0.00 0.00 0.00 93 1030.6
20260830192111 8 267 0.0 0.0 0.00 0.00 0.00 93 1030.5
20260830192009 8 267 0.0 0.0 0.00 0.00 0.00 93 1030.5
20260830191913 8 267 0.0 0.0 0.00 0.00 0.00 93 1030.5
20260830191809 8 267 0.0 0.0 0.00 0.00 0.00 93 1030.5
20260830191611 8 267 0.0 0.0 0.00 0.00 0.00 93 1030.4
20260830191510 8 267 0.0 0.0 0.00 0.00 0.00 93 1030.4
20260830191411 8 267 0.0 0.0 0.00 0.00 0.00 93 1030.4
20260830191307 8 267 0.0 0.0 0.00 0.00 0.00 93 1030.4
20260830191201 8 267 0.0 0.0 0.00 0.00 0.00 93 1030.4
20260830191056 8 267 0.0 0.0 0.00 0.00 0.00 93 1030.5
20260830190951 8 267 0.0 0.0 0.00 0.00 0.00 93 1030.3
20260830190851 8 267 0.0 0.0 0.00 0.00 0.00 93 1030.4
20260830190750 8 267 0.0 0.0 0.00 0.00 0.00 93 1030.3
20260830190643 8 267 0.0 0.0 0.00 0.00 0.00 93 1030.4
20260830190543 8 267 0.0 3.2 0.00 0.00 0.00 92 1030.3
20260830190521 8 267 0.0 3.2 0.00 0.00 0.00 93 1030.3
20260830190502 8 267 0.0 3.2 0.00 0.00 0.00 93 1030.4
20260830190436 8 267 0.0 3.2 0.00 0.00 0.00 92 1030.3
20260830190136 8 267 0.0 3.2 0.00 0.00 0.00 93 1030.2
20260830190038 8 267 0.0 3.2 0.00 0.00 0.00 92 1030.3
20260830185938 8 267 0.0 3.2 0.00 0.00 0.00 92 1030.3
20260830185839 8 267 0.0 3.2 0.00 0.00 0.00 92 1030.2
20260830185738 8 267 1.6 3.2 0.00 0.00 0.00 92 1030.3
20260830185640 8 267 1.6 3.2 0.00 0.00 0.00 92 1030.2
20260830185538 8 267 3.2 3.2 0.00 0.00 0.00 92 1030.2
20260830185439 8 267 3.2 3.2 0.00 0.00 0.00 92 1030.2
20260830185335 8 267 3.2 3.2 0.00 0.00 0.00 93 1030.2
20260830185239 8 267 3.2 3.2 0.00 0.00 0.00 92 1030.2
20260830185134 8 267 1.6 3.2 0.00 0.00 0.00 92 1030.3
20260830185034 8 267 1.6 3.2 0.00 0.00 0.00 92 1030.3
20260830184930 8 267 1.6 3.2 0.00 0.00 0.00 93 1030.3
20260830184904 8 267 1.6 3.2 0.00 0.00 0.00 93 1030.3
20260830184838 8 267 1.6 3.2 0.00 0.00 0.00 93 1030.3
20260830184808 8 267 1.6 3.2 0.00 0.00 0.00 93 1030.3
20260830184534 8 267 3.2 3.2 0.00 0.00 0.00 93 1030.3
20260830184511 8 267 3.2 3.2 0.00 0.00 0.00 92 1030.3
20260830184453 8 267 1.6 3.2 0.00 0.00 0.00 93 1030.3
20260830184426 8 267 0.0 3.2 0.00 0.00 0.00 92 1030.1
20260830184122 8 228 0.0 0.0 0.00 0.00 0.00 92 1030.2
20260830184037 8 228 0.0 0.0 0.00 0.00 0.00 92 1030.3
20260830184014 8 228 0.0 0.0 0.00 0.00 0.00 92 1030.2
20260830183955 8 228 0.0 0.0 0.00 0.00 0.00 92 1030.3
20260830183929 8 228 0.0 0.0 0.00 0.00 0.00 92 1030.3
20260830183609 8 228 0.0 0.0 0.00 0.00 0.00 92 1030.3
20260830183543 8 228 0.0 0.0 0.00 0.00 0.00 92 1030.3
20260830183521 8 228 0.0 0.0 0.00 0.00 0.00 92 1030.2
20260830183501 8 228 0.0 0.0 0.00 0.00 0.00 92 1030.3
20260830183430 8 228 0.0 0.0 0.00 0.00 0.00 92 1030.3
20260830183114 8 228 0.0 0.0 0.00 0.00 0.00 92 1030.3
20260830183011 8 228 0.0 0.0 0.00 0.00 0.00 92 1030.3
20260830182912 8 228 0.0 0.0 0.00 0.00 0.00 92 1030.3
20260830182810 8 228 0.0 0.0 0.00 0.00 0.00 92 1030.3
20260830182612 8 228 0.0 0.0 0.00 0.00 0.00 92 1030.3
20260830182509 8 228 0.0 0.0 0.00 0.00 0.00 92 1030.4
20260830182411 8 228 0.0 0.0 0.00 0.00 0.00 92 1030.3
20260830182310 8 228 0.0 0.0 0.00 0.00 0.00 93 1030.4
20260830182115 8 228 0.0 0.0 0.00 0.00 0.00 93 1030.4
20260830182009 8 228 0.0 0.0 0.00 0.00 0.00 93 1030.4
20260830181910 8 228 0.0 0.0 0.00 0.00 0.00 92 1030.4
20260830181805 8 228 0.0 0.0 0.00 0.00 0.00 92 1030.4
20260830181704 8 228 0.0 0.0 0.00 0.00 0.00 92 1030.5
20260830181559 8 228 0.0 0.0 0.00 0.00 0.00 92 1030.4
20260830181452 8 228 0.0 0.0 0.00 0.00 0.00 92 1030.5
20260830181352 8 228 0.0 0.0 0.00 0.00 0.00 92 1030.5
20260830181250 8 228 0.0 0.0 0.00 0.00 0.00 92 1030.5
20260830181146 8 228 0.0 0.0 0.00 0.00 0.00 92 1030.5
20260830181046 8 228 0.0 0.0 0.00 0.00 0.00 92 1030.5
20260830180946 8 228 0.0 0.0 0.00 0.00 0.00 92 1030.5
20260830180844 8 228 0.0 0.0 0.00 0.00 0.00 92 1030.5
20260830180743 8 228 0.0 0.0 0.00 0.00 0.00 92 1030.5
20260830180638 8 228 0.0 0.0 0.00 0.00 0.00 92 1030.6
20260830180537 8 228 0.0 0.0 0.00 0.00 0.00 92 1030.6
20260830180438 8 228 0.0 0.0 0.00 0.00 0.00 92 1030.5
20260830180340 8 228 0.0 0.0 0.00 0.00 0.00 92 1030.5
20260830180238 8 228 0.0 0.0 0.00 0.00 0.00 92 1030.5
20260830180139 8 228 0.0 0.0 0.00 0.00 0.00 92 1030.5
20260830180038 8 228 0.0 0.0 0.00 0.00 0.00 92 1030.6
20260830175938 8 228 0.0 0.0 0.00 0.00 0.00 92 1030.6
20260830175839 8 228 0.0 0.0 0.00 0.00 0.00 92 1030.6
20260830175738 8 228 0.0 0.0 0.00 0.00 0.00 92 1030.5
20260830175637 8 228 0.0 0.0 0.00 0.00 0.00 92 1030.4
20260830175537 8 228 0.0 0.0 0.00 0.00 0.00 92 1030.5
20260830175439 8 228 0.0 0.0 0.00 0.00 0.00 92 1030.4
20260830175342 8 228 0.0 0.0 0.00 0.00 0.00 92 1030.5
20260830175239 8 228 0.0 0.0 0.00 0.00 0.00 92 1030.5
20260830175138 8 228 0.0 0.0 0.00 0.00 0.00 92 1030.5
20260830175038 8 228 0.0 0.0 0.00 0.00 0.00 92 1030.5
20260830175009 8 228 0.0 0.0 0.00 0.00 0.00 92 1030.5
20260830174949 8 228 0.0 0.0 0.00 0.00 0.00 92 1030.5
20260830174929 8 228 0.0 0.0 0.00 0.00 0.00 92 1030.5
20260830174640 8 228 0.0 0.0 0.00 0.00 0.00 92 1030.5
20260830174538 8 228 0.0 0.0 0.00 0.00 0.00 92 1030.6
20260830174433 8 228 0.0 0.0 0.00 0.00 0.00 92 1030.5
20260830174328 8 228 0.0 0.0 0.00 0.00 0.00 92 1030.6
20260830174221 8 228 0.0 0.0 0.00 0.00 0.00 92 1030.5
20260830174122 8 228 0.0 0.0 0.00 0.00 0.00 92 1030.5
20260830174021 8 228 0.0 0.0 0.00 0.00 0.00 92 1030.6
20260830173921 8 228 0.0 0.0 0.00 0.00 0.00 92 1030.6
20260830173819 8 228 0.0 0.0 0.00 0.00 0.00 92 1030.6
20260830173758 8 228 0.0 0.0 0.00 0.00 0.00 92 1030.6
20260830173720 8 228 0.0 0.0 0.00 0.00 0.00 92 1030.5
20260830173657 8 228 0.0 0.0 0.00 0.00 0.00 92 1030.6
20260830173419 8 228 0.0 0.0 0.00 0.00 0.00 92 1030.7
20260830173356 8 228 0.0 0.0 0.00 0.00 0.00 92 1030.7
20260830173338 8 228 0.0 0.0 0.00 0.00 0.00 92 1030.7
20260830173259 8 228 0.0 0.0 0.00 0.00 0.00 91 1030.7
20260830173020 8 228 0.0 0.0 0.00 0.00 0.00 91 1030.8
20260830172957 8 228 0.0 0.0 0.00 0.00 0.00 91 1030.7
20260830172935 8 228 0.0 0.0 0.00 0.00 0.00 91 1030.8
20260830172914 8 228 0.0 0.0 0.00 0.00 0.00 91 1030.8
20260830172611 8 228 0.0 0.0 0.00 0.00 0.00 91 1030.8
20260830172510 8 228 0.0 0.0 0.00 0.00 0.00 91 1030.8
20260830172412 8 228 0.0 0.0 0.00 0.00 0.00 91 1030.8
20260830172309 8 228 0.0 0.0 0.00 0.00 0.00 91 1030.9
20260830172209 8 228 0.0 0.0 0.00 0.00 0.00 91 1030.8
20260830172107 8 228 0.0 0.0 0.00 0.00 0.00 91 1030.9
20260830172004 8 228 0.0 0.0 0.00 0.00 0.00 91 1030.8
20260830171902 8 228 0.0 0.0 0.00 0.00 0.00 91 1030.7
20260830171756 8 228 0.0 0.0 0.00 0.00 0.00 91 1030.7
20260830171554 8 228 0.0 0.0 0.00 0.00 0.00 91 1030.6
20260830171455 8 228 0.0 0.0 0.00 0.00 0.00 91 1030.6
20260830171355 8 228 0.0 0.0 0.00 0.00 0.00 91 1030.6
20260830171253 8 228 0.0 0.0 0.00 0.00 0.00 91 1030.6
20260830171049 8 228 0.0 0.0 0.00 0.00 0.00 92 1030.6
20260830170947 8 228 0.0 0.0 0.00 0.00 0.00 91 1030.7
20260830170846 8 228 0.0 0.0 0.00 0.00 0.00 91 1030.6
20260830170737 8 228 0.0 0.0 0.00 0.00 0.00 91 1030.7
20260830170540 8 228 0.0 0.0 0.00 0.00 0.00 91 1030.8
20260830170437 8 228 0.0 0.0 0.00 0.00 0.00 91 1030.8
20260830170337 8 228 0.0 0.0 0.00 0.00 0.00 91 1030.8
20260830170238 8 228 0.0 0.0 0.00 0.00 0.00 91 1030.9
20260830170038 8 228 0.0 0.0 0.00 0.00 0.00 91 1030.8
20260830165958 8 228 0.0 0.0 0.00 0.00 0.00 91 1030.8
20260830165935 8 228 0.0 0.0 0.00 0.00 0.00 91 1030.9
20260830165916 8 228 0.0 0.0 0.00 0.00 0.00 91 1030.8
20260830165851 8 228 0.0 0.0 0.00 0.00 0.00 91 1030.9
20260830165539 8 228 0.0 0.0 0.00 0.00 0.00 91 1030.9
20260830165437 8 228 0.0 0.0 0.00 0.00 0.00 91 1030.8
20260830165338 8 228 0.0 0.0 0.00 0.00 0.00 91 1030.9
20260830165242 8 228 0.0 0.0 0.00 0.00 0.00 91 1030.8
20260830165036 8 228 0.0 0.0 0.00 0.00 0.00 91 1030.9
20260830164939 8 228 0.0 0.0 0.00 0.00 0.00 91 1030.9
20260830164836 8 228 0.0 0.0 0.00 0.00 0.00 91 1030.9
20260830164737 8 228 0.0 0.0 0.00 0.00 0.00 91 1031.0
20260830164640 8 228 0.0 0.0 0.00 0.00 0.00 91 1030.9
20260830164538 8 228 0.0 0.0 0.00 0.00 0.00 91 1031.0
20260830164433 8 228 0.0 0.0 0.00 0.00 0.00 91 1030.9
20260830164326 8 228 0.0 0.0 0.00 0.00 0.00 91 1030.9
20260830164221 8 228 0.0 0.0 0.00 0.00 0.00 91 1030.9
20260830164130 8 228 0.0 0.0 0.00 0.00 0.00 91 1030.8
20260830164018 8 228 0.0 0.0 0.00 0.00 0.00 91 1030.9
20260830163940 8 228 0.0 0.0 0.00 0.00 0.00 91 1030.9
20260830163918 8 228 0.0 0.0 0.00 0.00 0.00 91 1030.9
20260830163856 8 228 0.0 0.0 0.00 0.00 0.00 91 1031.0
20260830163615 8 228 0.0 0.0 0.00 0.00 0.00 91 1031.0
20260830163509 8 228 0.0 0.0 0.00 0.00 0.00 91 1030.9
20260830163410 8 228 0.0 0.0 0.00 0.00 0.00 91 1030.9
20260830163309 8 228 0.0 0.0 0.00 0.00 0.00 91 1030.9
20260830163211 8 228 0.0 0.0 0.00 0.00 0.00 91 1030.8
20260830163112 8 228 0.0 0.0 0.00 0.00 0.00 91 1030.9
20260830163009 8 228 0.0 0.0 0.00 0.00 0.00 91 1030.9
20260830162934 8 228 0.0 0.0 0.00 0.00 0.00 91 1030.9
20260830162912 8 228 0.0 0.0 0.00 0.00 0.00 91 1031.0
20260830162852 8 228 0.0 0.0 0.00 0.00 0.00 91 1030.9
20260830162611 8 228 0.0 0.0 0.00 0.00 0.00 91 1030.9
20260830162509 8 228 0.0 0.0 0.00 0.00 0.00 91 1030.9
20260830162410 8 228 0.0 0.0 0.00 0.00 0.00 91 1030.9
20260830162310 8 228 0.0 0.0 0.00 0.00 0.00 91 1031.0
20260830162211 8 228 0.0 0.0 0.00 0.00 0.00 91 1031.0
20260830162112 8 228 0.0 0.0 0.00 0.00 0.00 91 1031.0
20260830162011 8 228 0.0 0.0 0.00 0.00 0.00 91 1030.9
20260830161910 8 228 0.0 0.0 0.00 0.00 0.00 91 1030.9
20260830161807 8 228 0.0 0.0 0.00 0.00 0.00 91 1031.0
20260830161704 8 228 0.0 0.0 0.00 0.00 0.00 91 1030.9
20260830161602 9 228 0.0 0.0 0.00 0.00 0.00 91 1030.9
20260830161503 8 228 0.0 0.0 0.00 0.00 0.00 91 1030.9
20260830161357 8 228 0.0 0.0 0.00 0.00 0.00 91 1031.0
20260830161258 9 228 0.0 0.0 0.00 0.00 0.00 91 1030.9
20260830161157 8 228 0.0 0.0 0.00 0.00 0.00 91 1031.0
20260830161053 8 228 0.0 0.0 0.00 0.00 0.00 91 1031.0
20260830160952 8 228 0.0 0.0 0.00 0.00 0.00 91 1031.1
20260830160843 9 228 0.0 0.0 0.00 0.00 0.00 91 1031.0
20260830160738 9 228 0.0 0.0 0.00 0.00 0.00 91 1031.0
20260830160637 9 228 0.0 0.0 0.00 0.00 0.00 91 1031.2
20260830160538 9 228 0.0 0.0 0.00 0.00 0.00 90 1031.1
20260830160439 9 228 0.0 0.0 0.00 0.00 0.00 90 1031.2
20260830160339 9 228 0.0 0.0 0.00 0.00 0.00 90 1031.2
20260830160238 9 228 0.0 0.0 0.00 0.00 0.00 90 1031.2
20260830160138 9 228 0.0 0.0 0.00 0.00 0.00 90 1031.1
20260830160037 9 228 0.0 0.0 0.00 0.00 0.00 90 1031.1
20260830155939 9 228 0.0 0.0 0.00 0.00 0.00 90 1031.1
20260830155911 9 228 0.0 0.0 0.00 0.00 0.00 90 1031.2
20260830155851 9 228 0.0 0.0 0.00 0.00 0.00 90 1031.1
20260830155831 9 228 0.0 0.0 0.00 0.00 0.00 90 1031.2
20260830155537 9 228 0.0 0.0 0.00 0.00 0.00 90 1031.1
20260830155441 9 228 0.0 0.0 0.00 0.00 0.00 90 1031.2
20260830155418 9 228 0.0 0.0 0.00 0.00 0.00 90 1031.2
20260830155400 9 228 0.0 0.0 0.00 0.00 0.00 90 1031.1
20260830155337 9 228 0.0 0.0 0.00 0.00 0.00 90 1031.2
20260830155038 9 228 0.0 0.0 0.00 0.00 0.00 90 1031.2
20260830154937 9 228 0.0 0.0 0.00 0.00 0.00 90 1031.2
20260830154840 9 228 0.0 0.0 0.00 0.00 0.00 90 1031.2
20260830154814 9 228 0.0 0.0 0.00 0.00 0.00 90 1031.2
20260830154723 9 228 0.0 0.0 0.00 0.00 0.00 90 1031.2
20260830154439 9 228 0.0 0.0 0.00 0.00 0.00 90 1031.2
20260830154418 9 228 0.0 0.0 0.00 0.00 0.00 90 1031.2
20260830154358 9 228 0.0 0.0 0.00 0.00 0.00 90 1031.2
20260830154333 9 228 0.0 0.0 0.00 0.00 0.00 90 1031.2
20260830154017 9 228 0.0 0.0 0.00 0.00 0.00 90 1031.2
20260830153913 9 228 0.0 0.0 0.00 0.00 0.00 90 1031.2
20260830153831 9 228 0.0 0.0 0.00 0.00 0.00 90 1031.2
20260830153809 9 228 0.0 0.0 0.00 0.00 0.00 90 1031.1
20260830153718 9 228 0.0 0.0 0.00 0.00 0.00 90 1031.1
20260830153437 9 228 0.0 0.0 0.00 0.00 0.00 90 1031.2
20260830153416 9 228 0.0 0.0 0.00 0.00 0.00 90 1031.2
20260830153355 9 228 0.0 0.0 0.00 0.00 0.00 90 1031.2
20260830153325 9 228 0.0 0.0 0.00 0.00 0.00 90 1031.2
20260830153010 9 228 0.0 0.0 0.00 0.00 0.00 90 1031.2
20260830152912 9 228 0.0 0.0 0.00 0.00 0.00 90 1031.2
20260830152809 9 228 0.0 0.0 0.00 0.00 0.00 90 1031.2
20260830152709 9 228 0.0 0.0 0.00 0.00 0.00 90 1031.1
20260830152511 9 228 0.0 0.0 0.00 0.00 0.00 90 1031.2
20260830152410 9 228 0.0 0.0 0.00 0.00 0.00 90 1031.2
20260830152309 9 228 0.0 0.0 0.00 0.00 0.00 90 1031.2
20260830152209 9 228 0.0 0.0 0.00 0.00 0.00 90 1031.3
20260830152011 9 228 0.0 0.0 0.00 0.00 0.00 90 1031.3
20260830151911 9 228 0.0 0.0 0.00 0.00 0.00 90 1031.3
20260830151812 9 228 0.0 0.0 0.00 0.00 0.00 90 1031.3
20260830151708 9 228 0.0 0.0 0.00 0.00 0.00 90 1031.2
20260830151509 9 228 0.0 0.0 0.00 0.00 0.00 90 1031.3
20260830151408 9 228 0.0 0.0 0.00 0.00 0.00 90 1031.3
20260830151311 9 228 0.0 0.0 0.00 0.00 0.00 90 1031.3
20260830151209 9 228 0.0 0.0 0.00 0.00 0.00 90 1031.2
20260830151009 9 228 0.0 0.0 0.00 0.00 0.00 90 1031.2
20260830150909 9 228 0.0 0.0 0.00 0.00 0.00 90 1031.2
20260830150811 9 228 0.0 0.0 0.00 0.00 0.00 90 1031.3
20260830150709 9 228 0.0 0.0 0.00 0.00 0.00 90 1031.3
20260830150510 10 228 0.0 0.0 0.00 0.00 0.00 90 1031.3
20260830150412 10 228 0.0 0.0 0.00 0.00 0.00 90 1031.2
20260830150311 10 228 0.0 0.0 0.00 0.00 0.00 90 1031.2
20260830150230 10 228 0.0 0.0 0.00 0.00 0.00 90 1031.3
20260830150135 10 228 0.0 0.0 0.00 0.00 0.00 90 1031.3
20260830150112 10 228 0.0 0.0 0.00 0.00 0.00 90 1031.3
20260830145830 10 228 0.0 0.0 0.00 0.00 0.00 89 1031.2
20260830145808 10 228 0.0 0.0 0.00 0.00 0.00 89 1031.3
20260830145714 10 228 0.0 0.0 0.00 0.00 0.00 89 1031.2
20260830145440 10 228 0.0 0.0 0.00 0.00 0.00 89 1031.4
20260830145412 10 228 0.0 0.0 0.00 0.00 0.00 89 1031.3
20260830145355 10 228 0.0 0.0 0.00 0.00 0.00 89 1031.3
20260830145326 10 228 0.0 0.0 0.00 0.00 0.00 89 1031.3
20260830145011 10 228 0.0 0.0 0.00 0.00 0.00 89 1031.3
20260830144913 10 228 0.0 0.0 0.00 0.00 0.00 89 1031.4
20260830144810 10 228 0.0 0.0 0.00 0.00 0.00 89 1031.4
20260830144709 10 228 0.0 0.0 0.00 0.00 0.00 89 1031.4
20260830144511 10 228 0.0 0.0 0.00 0.00 0.00 89 1031.4
20260830144448 10 228 0.0 0.0 0.00 0.00 0.00 89 1031.4
20260830144418 10 228 0.0 0.0 0.00 0.00 0.00 89 1031.5
20260830144358 10 228 0.0 0.0 0.00 0.00 0.00 89 1031.6
20260830144327 10 228 0.0 0.0 0.00 0.00 0.00 89 1031.5
20260830144009 10 228 0.0 0.0 0.00 0.00 0.00 89 1031.6
20260830143910 10 228 0.0 0.0 0.00 0.00 0.00 89 1031.4
20260830143813 10 228 0.0 0.0 0.00 0.00 0.00 89 1031.5
20260830143714 10 228 0.0 0.0 0.00 0.00 0.00 89 1031.5
20260830143510 10 228 0.0 0.0 0.00 0.00 0.00 89 1031.5
20260830143410 10 228 0.0 0.0 0.00 0.00 0.00 89 1031.4
20260830143309 10 228 0.0 0.0 0.00 0.00 0.00 89 1031.4
20260830143210 10 228 0.0 0.0 0.00 0.00 0.00 89 1031.5
20260830143011 10 228 0.0 0.0 0.00 0.00 0.00 89 1031.5
20260830142911 10 228 0.0 0.0 0.00 0.00 0.00 89 1031.5
20260830142812 10 228 0.0 0.0 0.00 0.00 0.00 89 1031.5
20260830142710 10 228 0.0 0.0 0.00 0.00 0.00 89 1031.5
20260830142512 10 228 0.0 0.0 0.00 0.00 0.00 89 1031.5
20260830142438 10 228 0.0 0.0 0.00 0.00 0.00 89 1031.5
20260830142414 10 228 0.0 0.0 0.00 0.00 0.00 89 1031.5
20260830142355 10 228 0.0 0.0 0.00 0.00 0.00 89 1031.5
20260830142328 10 228 0.0 0.0 0.00 0.00 0.00 89 1031.5
20260830142010 10 228 0.0 0.0 0.00 0.00 0.00 89 1031.5
20260830141909 10 228 0.0 0.0 0.00 0.00 0.00 89 1031.6
20260830141809 10 228 0.0 0.0 0.00 0.00 0.00 89 1031.5
20260830141706 10 228 0.0 0.0 0.00 0.00 0.00 89 1031.5
20260830141604 10 228 0.0 0.0 0.00 0.00 0.00 89 1031.5
20260830141502 10 228 0.0 0.0 0.00 0.00 0.00 89 1031.5
20260830141354 10 228 0.0 0.0 0.00 0.00 0.00 89 1031.5
20260830141248 10 228 0.0 0.0 0.00 0.00 0.00 89 1031.6
20260830141149 10 228 0.0 0.0 0.00 0.00 0.00 89 1031.5
20260830141042 10 228 0.0 0.0 0.00 0.00 0.00 89 1031.5
20260830140939 10 228 0.0 0.0 0.00 0.00 0.00 89 1031.6
20260830140845 10 228 0.0 0.0 0.00 0.00 0.00 89 1031.5
20260830140739 10 228 0.0 0.0 0.00 0.00 0.00 89 1031.5
20260830140640 10 228 0.0 0.0 0.00 0.00 0.00 89 1031.6
20260830140537 10 228 0.0 0.0 0.00 0.00 0.00 89 1031.5
20260830140437 10 228 0.0 0.0 0.00 0.00 0.00 89 1031.6
20260830140341 10 228 0.0 0.0 0.00 0.00 0.00 88 1031.6
20260830140239 10 228 0.0 0.0 0.00 0.00 0.00 88 1031.6
20260830140140 10 228 0.0 0.0 0.00 0.00 0.00 88 1031.6
20260830140038 10 228 0.0 0.0 0.00 0.00 0.00 88 1031.6
20260830135939 10 228 0.0 0.0 0.00 0.00 0.00 88 1031.6
20260830135838 10 228 0.0 0.0 0.00 0.00 0.00 88 1031.6
20260830135737 10 228 0.0 0.0 0.00 0.00 0.00 88 1031.7
20260830135636 10 228 0.0 0.0 0.00 0.00 0.00 88 1031.6
20260830135538 10 228 0.0 0.0 0.00 0.00 0.00 88 1031.5
20260830135431 10 228 0.0 0.0 0.00 0.00 0.00 88 1031.5
20260830135331 10 228 0.0 0.0 0.00 0.00 0.00 88 1031.5
20260830135218 10 228 0.0 0.0 0.00 0.00 0.00 88 1031.7
20260830135018 10 228 0.0 0.0 0.00 0.00 0.00 88 1031.6
20260830134919 10 228 0.0 0.0 0.00 0.00 0.00 88 1031.6
20260830134824 10 228 0.0 0.0 0.00 0.00 0.00 88 1031.6
20260830134717 10 228 0.0 0.0 0.00 0.00 0.00 88 1031.6
20260830134515 10 228 0.0 0.0 0.00 0.00 0.00 88 1031.6
20260830134415 10 228 0.0 0.0 0.00 0.00 0.00 88 1031.7
20260830134319 10 228 0.0 0.0 0.00 0.00 0.00 88 1031.6
20260830134214 10 228 0.0 0.0 0.00 0.00 0.00 88 1031.6
20260830134013 10 228 0.0 0.0 0.00 0.00 0.00 88 1031.6
20260830133911 10 228 0.0 0.0 0.00 0.00 0.00 88 1031.6
20260830133817 10 228 0.0 0.0 0.00 0.00 0.00 88 1031.7
20260830133709 10 228 0.0 0.0 0.00 0.00 0.00 88 1031.7
20260830133510 10 228 0.0 0.0 0.00 0.00 0.00 88 1031.7
20260830133448 10 228 0.0 0.0 0.00 0.00 0.00 88 1031.6
20260830133427 10 228 0.0 0.0 0.00 0.00 0.00 88 1031.5
20260830133400 11 228 0.0 0.0 0.00 0.00 0.00 88 1031.5
20260830133332 10 228 0.0 0.0 0.00 0.00 0.00 88 1031.6
20260830133011 11 228 0.0 0.0 0.00 0.00 0.00 88 1031.6
20260830132909 11 228 0.0 0.0 0.00 0.00 0.00 88 1031.6
20260830132817 11 228 0.0 0.0 0.00 0.00 0.00 88 1031.6
20260830132710 11 228 0.0 0.0 0.00 0.00 0.00 88 1031.5
20260830132510 11 228 0.0 0.0 0.00 0.00 0.00 88 1031.6
20260830132443 11 228 0.0 0.0 0.00 0.00 0.00 88 1031.6
20260830132424 11 228 0.0 0.0 0.00 0.00 0.00 88 1031.6
20260830132357 11 228 0.0 0.0 0.00 0.00 0.00 88 1031.6
20260830132328 11 228 0.0 0.0 0.00 0.00 0.00 88 1031.7
20260830132011 11 228 0.0 1.6 0.00 0.00 0.00 88 1031.6
20260830131909 11 228 0.0 3.2 0.00 0.00 0.00 88 1031.7
20260830131809 11 228 0.0 3.2 0.00 0.00 0.00 87 1031.7
20260830131709 11 228 0.0 3.2 0.00 0.00 0.00 87 1031.7
20260830131509 11 228 0.0 3.2 0.00 0.00 0.00 87 1031.6
20260830131410 11 228 0.0 3.2 0.00 0.00 0.00 87 1031.6
20260830131309 11 228 0.0 3.2 0.00 0.00 0.00 87 1031.6
20260830131210 11 228 1.6 3.2 0.00 0.00 0.00 87 1031.6
20260830131013 11 228 1.6 3.2 0.00 0.00 0.00 87 1031.6
20260830130909 11 228 1.6 3.2 0.00 0.00 0.00 87 1031.5
20260830130811 11 105 0.0 0.0 0.00 0.00 0.00 87 1031.6
20260830130711 11 105 0.0 0.0 0.00 0.00 0.00 87 1031.7
20260830130511 11 105 0.0 0.0 0.00 0.00 0.00 87 1031.6
20260830130447 11 105 0.0 0.0 0.00 0.00 0.00 87 1031.7
20260830130425 11 105 0.0 0.0 0.00 0.00 0.00 87 1031.6
20260830130357 11 105 0.0 0.0 0.00 0.00 0.00 87 1031.6
20260830130330 11 105 0.0 0.0 0.00 0.00 0.00 87 1031.6
20260830130009 11 105 0.0 0.0 0.00 0.00 0.00 87 1031.8
20260830125909 11 105 0.0 1.6 0.00 0.00 0.00 87 1031.6
20260830125811 11 105 0.0 1.6 0.00 0.00 0.00 87 1031.6
20260830125712 11 105 0.0 1.6 0.00 0.00 0.00 87 1031.6
20260830125509 11 105 0.0 1.6 0.00 0.00 0.00 87 1031.7
20260830125411 11 105 0.0 1.6 0.00 0.00 0.00 87 1031.6
20260830125309 11 105 0.0 1.6 0.00 0.00 0.00 87 1031.7
20260830125211 11 105 0.0 3.2 0.00 0.00 0.00 87 1031.7
20260830125008 11 105 1.6 8.0 0.00 0.00 0.00 87 1031.6
20260830124905 11 105 0.0 8.0 0.00 0.00 0.00 87 1031.6
20260830124759 11 134 0.0 8.0 0.00 0.00 0.00 87 1031.7
20260830124653 11 134 0.0 8.0 0.00 0.00 0.00 87 1031.7
20260830124551 11 134 0.0 8.0 0.00 0.00 0.00 87 1031.6
20260830124452 11 134 0.0 8.0 0.00 0.00 0.00 87 1031.5
20260830124348 11 134 1.6 8.0 0.00 0.00 0.00 86 1031.5
20260830124248 11 151 1.6 8.0 0.00 0.00 0.00 86 1031.6
20260830124144 11 142 1.6 3.2 0.00 0.00 0.00 87 1031.5
20260830124039 11 142 1.6 4.8 0.00 0.00 0.00 86 1031.5
20260830123937 11 140 1.6 4.8 0.00 0.00 0.00 86 1031.5
20260830123838 11 115 1.6 4.8 0.00 0.00 0.00 86 1031.5
20260830123740 11 115 1.6 4.8 0.00 0.00 0.00 86 1031.4
20260830123638 11 115 3.2 4.8 0.00 0.00 0.00 86 1031.4
20260830123538 11 115 3.2 4.8 0.00 0.00 0.00 86 1031.5
20260830123438 11 114 1.6 4.8 0.00 0.00 0.00 86 1031.4
20260830123338 11 112 1.6 4.8 0.00 0.00 0.00 86 1031.5
20260830123238 11 114 3.2 4.8 0.00 0.00 0.00 86 1031.4
20260830123138 11 114 3.2 4.8 0.00 0.00 0.00 86 1031.4
20260830123039 11 113 3.2 4.8 0.00 0.00 0.00 86 1031.4
20260830122937 11 121 1.6 4.8 0.00 0.00 0.00 85 1031.4
20260830122836 11 155 0.0 1.6 0.00 0.00 0.00 85 1031.3
20260830122742 11 46 0.0 0.0 0.00 0.00 0.00 85 1031.3
20260830122640 11 46 0.0 0.0 0.00 0.00 0.00 85 1031.3
20260830122539 11 46 0.0 0.0 0.00 0.00 0.00 85 1031.2
20260830122444 11 46 0.0 0.0 0.00 0.00 0.00 85 1031.1
20260830122422 11 46 0.0 0.0 0.00 0.00 0.00 85 1031.1
20260830122402 11 46 0.0 0.0 0.00 0.00 0.00 85 1031.1
20260830122330 11 46 0.0 0.0 0.00 0.00 0.00 85 1031.1
20260830122023 11 46 0.0 0.0 0.00 0.00 0.00 85 1031.1
20260830121920 11 46 0.0 0.0 0.00 0.00 0.00 85 1031.1
20260830121821 11 46 0.0 0.0 0.00 0.00 0.00 85 1031.1
20260830121718 11 46 0.0 0.0 0.00 0.00 0.00 84 1031.2
20260830121622 11 46 0.0 0.0 0.00 0.00 0.00 84 1031.3
20260830121516 11 46 0.0 0.0 0.00 0.00 0.00 84 1031.2
20260830121417 11 46 0.0 0.0 0.00 0.00 0.00 84 1031.2
20260830121316 11 46 0.0 0.0 0.00 0.00 0.00 84 1031.2
20260830121214 11 46 0.0 0.0 0.00 0.00 0.00 84 1031.2
20260830121012 11 46 0.0 0.0 0.00 0.00 0.00 84 1031.3
20260830120910 11 46 0.0 0.0 0.00 0.00 0.00 84 1031.3
20260830120809 11 46 0.0 0.0 0.00 0.00 0.00 84 1031.2
20260830120709 11 46 0.0 0.0 0.00 0.00 0.00 84 1031.3
20260830120511 11 46 0.0 0.0 0.00 0.00 0.00 84 1031.3
20260830120411 11 46 0.0 0.0 0.00 0.00 0.00 84 1031.2
20260830120310 11 46 0.0 0.0 0.00 0.00 0.00 84 1031.2
20260830120212 11 46 0.0 0.0 0.00 0.00 0.00 84 1031.3
20260830120010 11 46 0.0 0.0 0.00 0.00 0.00 84 1031.3
20260830115911 12 46 0.0 0.0 0.00 0.00 0.00 83 1031.3
20260830115811 12 46 0.0 0.0 0.00 0.00 0.00 83 1031.3
20260830115710 12 46 0.0 0.0 0.00 0.00 0.00 83 1031.4
20260830115511 12 46 0.0 0.0 0.00 0.00 0.00 83 1031.4
20260830115409 12 46 0.0 0.0 0.00 0.00 0.00 83 1031.4
20260830115312 12 46 0.0 0.0 0.00 0.00 0.00 83 1031.3
20260830115209 12 46 0.0 0.0 0.00 0.00 0.00 83 1031.3
20260830115011 12 46 0.0 0.0 0.00 0.00 0.00 83 1031.4
20260830114909 12 46 0.0 0.0 0.00 0.00 0.00 83 1031.2
20260830114812 12 46 0.0 0.0 0.00 0.00 0.00 83 1031.3
20260830114710 12 46 0.0 0.0 0.00 0.00 0.00 83 1031.3
20260830114511 12 46 0.0 0.0 0.00 0.00 0.00 82 1031.3
20260830114409 12 46 0.0 0.0 0.00 0.00 0.00 83 1031.3
20260830114309 12 46 0.0 0.0 0.00 0.00 0.00 83 1031.3
20260830114209 12 46 0.0 0.0 0.00 0.00 0.00 83 1031.3
20260830114011 12 46 0.0 0.0 0.00 0.00 0.00 82 1031.2
20260830113911 12 46 0.0 0.0 0.00 0.00 0.00 82 1031.3
20260830113810 12 46 0.0 0.0 0.00 0.00 0.00 82 1031.2
20260830113710 12 46 0.0 0.0 0.00 0.00 0.00 82 1031.2
20260830113510 12 46 0.0 0.0 0.00 0.00 0.00 82 1031.2
20260830113410 12 46 0.0 0.0 0.00 0.00 0.00 82 1031.2
20260830113310 12 46 0.0 0.0 0.00 0.00 0.00 82 1031.3
20260830113210 12 46 0.0 0.0 0.00 0.00 0.00 82 1031.3
20260830113010 12 46 0.0 0.0 0.00 0.00 0.00 82 1031.3
20260830112912 12 46 0.0 0.0 0.00 0.00 0.00 82 1031.3
20260830112810 12 46 0.0 0.0 0.00 0.00 0.00 82 1031.3
20260830112711 12 46 0.0 0.0 0.00 0.00 0.00 82 1031.3
20260830112511 12 46 0.0 0.0 0.00 0.00 0.00 82 1031.2
20260830112411 12 46 0.0 0.0 0.00 0.00 0.00 82 1031.3
20260830112311 12 46 0.0 0.0 0.00 0.00 0.00 81 1031.3
20260830112210 12 46 0.0 0.0 0.00 0.00 0.00 81 1031.3
20260830112009 12 46 0.0 0.0 0.00 0.00 0.00 81 1031.3
20260830111911 12 46 0.0 0.0 0.00 0.00 0.00 81 1031.3
20260830111812 12 46 0.0 0.0 0.00 0.00 0.00 81 1031.4
20260830111703 12 46 0.0 0.0 0.00 0.00 0.00 81 1031.4
20260830111601 12 46 0.0 0.0 0.00 0.00 0.00 81 1031.5
20260830111500 12 46 0.0 0.0 0.00 0.00 0.00 81 1031.3
20260830111400 12 46 0.0 0.0 0.00 0.00 0.00 81 1031.4
20260830111259 12 46 0.0 0.0 0.00 0.00 0.00 81 1031.3
20260830111154 12 46 0.0 0.0 0.00 0.00 0.00 80 1031.3
20260830111049 12 46 0.0 0.0 0.00 0.00 0.00 80 1031.4
20260830110943 12 46 0.0 0.0 0.00 0.00 0.00 80 1031.3
20260830110840 12 46 0.0 0.0 0.00 0.00 0.00 80 1031.4
20260830110738 12 46 0.0 0.0 0.00 0.00 0.00 80 1031.3
20260830110637 12 46 0.0 0.0 0.00 0.00 0.00 79 1031.3
20260830110540 12 46 0.0 0.0 0.00 0.00 0.00 79 1031.2
20260830110438 12 46 0.0 0.0 0.00 0.00 0.00 79 1031.3
20260830110339 12 46 0.0 0.0 0.00 0.00 0.00 79 1031.3
20260830110237 13 46 0.0 0.0 0.00 0.00 0.00 79 1031.2
20260830110137 13 46 0.0 0.0 0.00 0.00 0.00 79 1031.3
20260830110040 13 46 0.0 0.0 0.00 0.00 0.00 79 1031.1
20260830105937 13 46 0.0 0.0 0.00 0.00 0.00 78 1031.2
20260830105838 13 46 0.0 0.0 0.00 0.00 0.00 78 1031.1
20260830105739 13 46 0.0 0.0 0.00 0.00 0.00 78 1031.2
20260830105654 13 46 0.0 0.0 0.00 0.00 0.00 78 1031.2
20260830105539 13 46 0.0 0.0 0.00 0.00 0.00 78 1031.2
20260830105439 13 46 0.0 0.0 0.00 0.00 0.00 78 1031.2
20260830105339 13 46 0.0 0.0 0.00 0.00 0.00 78 1031.2
20260830105238 13 46 0.0 0.0 0.00 0.00 0.00 78 1031.3
20260830105131 13 46 0.0 0.0 0.00 0.00 0.00 78 1031.2
20260830105026 13 46 0.0 0.0 0.00 0.00 0.00 78 1031.1
20260830104925 13 46 0.0 0.0 0.00 0.00 0.00 78 1031.2
20260830104825 13 46 0.0 0.0 0.00 0.00 0.00 78 1031.2
20260830104723 13 46 0.0 0.0 0.00 0.00 0.00 77 1031.2
20260830104623 13 46 0.0 0.0 0.00 0.00 0.00 77 1031.2
20260830104520 13 46 0.0 0.0 0.00 0.00 0.00 77 1031.2
20260830104417 13 46 0.0 0.0 0.00 0.00 0.00 77 1031.2
20260830104316 13 46 0.0 0.0 0.00 0.00 0.00 77 1031.2
20260830104218 13 46 0.0 0.0 0.00 0.00 0.00 77 1031.2
20260830104013 13 46 0.0 0.0 0.00 0.00 0.00 77 1031.1
20260830103915 13 46 0.0 0.0 0.00 0.00 0.00 77 1031.0
20260830103811 13 46 0.0 0.0 0.00 0.00 0.00 77 1031.0
20260830103710 13 46 0.0 0.0 0.00 0.00 0.00 77 1031.0
20260830103511 13 46 0.0 0.0 0.00 0.00 0.00 77 1031.0
20260830103410 13 46 0.0 0.0 0.00 0.00 0.00 76 1031.0
20260830103311 13 46 0.0 0.0 0.00 0.00 0.00 76 1030.9
20260830103209 13 46 0.0 0.0 0.00 0.00 0.00 76 1031.0
20260830103011 13 46 0.0 0.0 0.00 0.00 0.00 76 1030.9
20260830102911 13 46 0.0 0.0 0.00 0.00 0.00 76 1030.8
20260830102810 13 46 0.0 0.0 0.00 0.00 0.00 76 1030.9
20260830102710 13 46 0.0 0.0 0.00 0.00 0.00 76 1030.9
20260830102508 13 46 0.0 0.0 0.00 0.00 0.00 76 1030.8
20260830102410 13 46 0.0 0.0 0.00 0.00 0.00 76 1030.7
20260830102309 13 46 0.0 0.0 0.00 0.00 0.00 76 1030.8
20260830102213 13 46 0.0 0.0 0.00 0.00 0.00 76 1030.8
20260830102009 13 46 0.0 0.0 0.00 0.00 0.00 76 1030.8
20260830101910 13 46 0.0 0.0 0.00 0.00 0.00 76 1030.8
20260830101810 13 46 0.0 0.0 0.00 0.00 0.00 76 1030.8
20260830101708 13 46 0.0 0.0 0.00 0.00 0.00 75 1030.9
20260830101605 14 46 0.0 0.0 0.00 0.00 0.00 75 1030.9
20260830101506 14 46 0.0 0.0 0.00 0.00 0.00 76 1030.8
20260830101359 14 46 0.0 0.0 0.00 0.00 0.00 76 1030.8
20260830101259 14 46 0.0 0.0 0.00 0.00 0.00 76 1030.9
20260830101157 14 46 0.0 0.0 0.00 0.00 0.00 76 1030.8
20260830101045 14 46 0.0 0.0 0.00 0.00 0.00 76 1030.8
20260830100941 14 46 0.0 0.0 0.00 0.00 0.00 76 1030.8
20260830100840 14 46 0.0 0.0 0.00 0.00 0.00 75 1030.9
20260830100739 14 46 0.0 0.0 0.00 0.00 0.00 75 1030.8
20260830100640 14 46 0.0 0.0 0.00 0.00 0.00 75 1030.9
20260830100541 14 46 0.0 0.0 0.00 0.00 0.00 75 1030.8
20260830100441 14 46 0.0 0.0 0.00 0.00 0.00 75 1030.9
20260830100420 14 46 0.0 0.0 0.00 0.00 0.00 75 1030.8
20260830100400 14 46 0.0 0.0 0.00 0.00 0.00 75 1030.8
20260830100335 14 46 0.0 0.0 0.00 0.00 0.00 75 1030.8
20260830100040 14 46 0.0 0.0 0.00 0.00 0.00 75 1030.7
20260830095939 14 46 0.0 0.0 0.00 0.00 0.00 75 1030.7
20260830095912 14 46 0.0 0.0 0.00 0.00 0.00 75 1030.7
20260830095854 14 46 0.0 0.0 0.00 0.00 0.00 75 1030.7
20260830095832 14 46 0.0 0.0 0.00 0.00 0.00 75 1030.6
20260830095540 14 46 0.0 0.0 0.00 0.00 0.00 75 1030.8
20260830095437 14 46 0.0 0.0 0.00 0.00 0.00 75 1030.7
20260830095339 14 46 0.0 0.0 0.00 0.00 0.00 75 1030.7
20260830095238 14 46 0.0 0.0 0.00 0.00 0.00 75 1030.7
20260830095138 15 46 0.0 0.0 0.00 0.00 0.00 75 1030.6
20260830095043 15 46 0.0 0.0 0.00 0.00 0.00 74 1030.7
20260830094939 15 46 0.0 0.0 0.00 0.00 0.00 74 1030.6
20260830094914 15 46 0.0 0.0 0.00 0.00 0.00 74 1030.7
20260830094853 15 46 0.0 0.0 0.00 0.00 0.00 74 1030.6
20260830094830 15 46 0.0 0.0 0.00 0.00 0.00 74 1030.6
20260830094540 15 46 0.0 0.0 0.00 0.00 0.00 74 1030.6
20260830094439 15 46 0.0 0.0 0.00 0.00 0.00 74 1030.5
20260830094416 15 46 0.0 0.0 0.00 0.00 0.00 74 1030.5
20260830094355 15 46 0.0 0.0 0.00 0.00 0.00 74 1030.5
20260830094328 15 46 0.0 0.0 0.00 0.00 0.00 74 1030.5
20260830094012 15 46 0.0 0.0 0.00 0.00 0.00 74 1030.4
20260830093914 15 46 0.0 0.0 0.00 0.00 0.00 74 1030.5
20260830093812 15 46 0.0 0.0 0.00 0.00 0.00 74 1030.4
20260830093710 15 46 0.0 0.0 0.00 0.00 0.00 74 1030.5
20260830093511 15 46 0.0 0.0 0.00 0.00 0.00 74 1030.5
20260830093409 15 46 0.0 0.0 0.00 0.00 0.00 74 1030.6
20260830093312 15 46 0.0 0.0 0.00 0.00 0.00 74 1030.5
20260830093209 15 46 0.0 0.0 0.00 0.00 0.00 74 1030.4
20260830093008 15 46 0.0 0.0 0.00 0.00 0.00 74 1030.4
20260830092910 15 46 0.0 0.0 0.00 0.00 0.00 74 1030.3
20260830092811 15 46 0.0 0.0 0.00 0.00 0.00 74 1030.3
20260830092708 15 46 0.0 0.0 0.00 0.00 0.00 74 1030.5
20260830092511 15 46 0.0 0.0 0.00 0.00 0.00 74 1030.3
20260830092411 15 46 0.0 0.0 0.00 0.00 0.00 74 1030.4
20260830092309 15 46 0.0 0.0 0.00 0.00 0.00 74 1030.3
20260830092209 15 46 0.0 0.0 0.00 0.00 0.00 74 1030.3
20260830092011 15 46 0.0 4.8 0.00 0.00 0.00 74 1030.4
20260830091910 15 46 0.0 4.8 0.00 0.00 0.00 73 1030.4
20260830091814 15 46 0.0 4.8 0.00 0.00 0.00 73 1030.5
20260830091707 15 46 0.0 4.8 0.00 0.00 0.00 73 1030.4
20260830091609 15 46 0.0 6.4 0.00 0.00 0.00 73 1030.4
20260830091502 15 46 0.0 6.4 0.00 0.00 0.00 73 1030.4
20260830091401 15 46 0.0 6.4 0.00 0.00 0.00 73 1030.4
20260830091301 15 46 1.6 6.4 0.00 0.00 0.00 73 1030.4
20260830091200 15 46 3.2 6.4 0.00 0.00 0.00 73 1030.4
20260830091058 15 51 3.2 6.4 0.00 0.00 0.00 72 1030.4
20260830090952 15 45 1.6 6.4 0.00 0.00 0.00 72 1030.4
20260830090915 15 69 3.2 6.4 0.00 0.00 0.00 72 1030.2
20260830090852 15 47 3.2 6.4 0.00 0.00 0.00 72 1030.4
20260830090832 15 26 1.6 6.4 0.00 0.00 0.00 72 1030.4
20260830090540 15 344 0.0 6.4 0.00 0.00 0.00 71 1030.5
20260830090443 15 28 0.0 6.4 0.00 0.00 0.00 71 1030.4
20260830090337 15 28 0.0 6.4 0.00 0.00 0.00 71 1030.4
20260830090238 15 28 0.0 6.4 0.00 0.00 0.00 71 1030.3
20260830090137 15 28 0.0 6.4 0.00 0.00 0.00 71 1030.4
20260830090039 16 28 3.2 6.4 0.00 0.00 0.00 71 1030.3
20260830085946 16 32 3.2 6.4 0.00 0.00 0.00 70 1030.3
20260830085840 16 43 1.6 6.4 0.00 0.00 0.00 70 1030.4
20260830085737 16 23 0.0 4.8 0.00 0.00 0.00 70 1030.2
20260830085637 16 41 0.0 4.8 0.00 0.00 0.00 70 1030.4
20260830085538 16 41 0.0 4.8 0.00 0.00 0.00 70 1030.3
20260830085447 16 41 0.0 4.8 0.00 0.00 0.00 70 1030.3
20260830085416 16 41 0.0 4.8 0.00 0.00 0.00 69 1030.3
20260830085358 16 41 1.6 4.8 0.00 0.00 0.00 69 1030.3
20260830085332 16 41 1.6 4.8 0.00 0.00 0.00 69 1030.2
20260830085038 16 33 1.6 4.8 0.00 0.00 0.00 69 1030.3
20260830084949 16 28 1.6 3.2 0.00 0.00 0.00 69 1030.2
20260830084919 16 38 0.0 3.2 0.00 0.00 0.00 69 1030.3
20260830084858 16 38 0.0 3.2 0.00 0.00 0.00 69 1030.2
20260830084833 16 60 0.0 1.6 0.00 0.00 0.00 69 1030.1
20260830084534 16 60 0.0 0.0 0.00 0.00 0.00 69 1030.0
20260830084433 16 60 0.0 0.0 0.00 0.00 0.00 69 1030.0
20260830084323 16 60 0.0 1.6 0.00 0.00 0.00 68 1030.1
20260830084221 16 60 0.0 1.6 0.00 0.00 0.00 68 1030.0
20260830084126 16 60 0.0 3.2 0.00 0.00 0.00 68 1030.0
20260830084016 16 60 0.0 3.2 0.00 0.00 0.00 68 1030.0
20260830083925 16 60 0.0 3.2 0.00 0.00 0.00 68 1030.0
20260830083810 16 60 0.0 3.2 0.00 0.00 0.00 68 1029.9
20260830083709 16 60 0.0 3.2 0.00 0.00 0.00 68 1030.1
20260830083510 16 60 0.0 3.2 0.00 0.00 0.00 68 1029.9
20260830083412 16 60 0.0 3.2 0.00 0.00 0.00 68 1029.9
20260830083312 16 24 0.0 3.2 0.00 0.00 0.00 67 1030.0
20260830083210 16 24 0.0 3.2 0.00 0.00 0.00 67 1029.9
20260830083010 17 24 0.0 1.6 0.00 0.00 0.00 67 1030.0
20260830082917 17 24 0.0 1.6 0.00 0.00 0.00 67 1030.0
20260830082810 17 61 0.0 1.6 0.00 0.00 0.00 67 1030.0
20260830082711 17 61 0.0 1.6 0.00 0.00 0.00 67 1029.9
20260830082509 17 61 0.0 1.6 0.00 0.00 0.00 67 1030.1
20260830082414 17 61 0.0 1.6 0.00 0.00 0.00 67 1029.9
20260830082311 17 61 0.0 1.6 0.00 0.00 0.00 67 1029.9
20260830082209 17 61 0.0 1.6 0.00 0.00 0.00 67 1029.9
20260830082012 17 57 0.0 1.6 0.00 0.00 0.00 66 1029.9
20260830081914 17 57 0.0 1.6 0.00 0.00 0.00 66 1029.9
20260830081809 17 57 0.0 1.6 0.00 0.00 0.00 66 1029.8
20260830081713 17 57 0.0 3.2 0.00 0.00 0.00 66 1029.9
20260830081510 17 57 0.0 3.2 0.00 0.00 0.00 66 1029.9
20260830081411 17 57 0.0 3.2 0.00 0.00 0.00 66 1029.9
20260830081309 17 57 0.0 3.2 0.00 0.00 0.00 66 1029.9
20260830081211 17 57 0.0 3.2 0.00 0.00 0.00 66 1029.9
20260830081009 17 57 0.0 3.2 0.00 0.00 0.00 66 1029.8
20260830080911 17 57 1.6 3.2 0.00 0.00 0.00 65 1029.8
20260830080809 17 57 1.6 3.2 0.00 0.00 0.00 65 1029.8
20260830080711 17 64 0.0 3.2 0.00 0.00 0.00 65 1029.8
20260830080510 17 109 1.6 6.4 0.00 0.00 0.00 64 1029.9
20260830080412 17 53 0.0 6.4 0.00 0.00 0.00 64 1030.0
20260830080312 17 62 0.0 6.4 0.00 0.00 0.00 64 1029.8
20260830080213 17 62 1.6 6.4 0.00 0.00 0.00 64 1029.8
20260830080012 17 62 0.0 6.4 0.00 0.00 0.00 63 1029.8
20260830075911 17 63 1.6 6.4 0.00 0.00 0.00 63 1029.7
20260830075828 18 63 1.6 6.4 0.00 0.00 0.00 63 1029.8
20260830075804 18 73 1.6 6.4 0.00 0.00 0.00 63 1029.8
20260830075715 18 78 1.6 6.4 0.00 0.00 0.00 62 1029.7
20260830075440 18 94 3.2 6.4 0.00 0.00 0.00 62 1029.7
20260830075412 18 94 4.8 6.4 0.00 0.00 0.00 62 1029.7
20260830075353 18 96 4.8 6.4 0.00 0.00 0.00 62 1029.7
20260830075325 18 107 3.2 9.7 0.00 0.00 0.00 61 1029.6
20260830075009 18 94 4.8 9.7 0.00 0.00 0.00 61 1029.6
20260830074911 18 91 4.8 9.7 0.00 0.00 0.00 60 1029.7
20260830074809 18 101 4.8 9.7 0.00 0.00 0.00 60 1029.7
20260830074709 18 103 4.8 9.7 0.00 0.00 0.00 60 1029.7
20260830074510 18 106 4.8 9.7 0.00 0.00 0.00 59 1029.7
20260830074409 18 102 4.8 9.7 0.00 0.00 0.00 59 1029.7
20260830074309 18 113 4.8 9.7 0.00 0.00 0.00 59 1029.7
20260830074210 18 115 3.2 9.7 0.00 0.00 0.00 59 1029.7
20260830074011 19 107 3.2 4.8 0.00 0.00 0.00 58 1029.6
20260830073909 19 90 3.2 4.8 0.00 0.00 0.00 57 1029.6
20260830073809 19 105 1.6 4.8 0.00 0.00 0.00 57 1029.6
20260830073710 19 92 1.6 3.2 0.00 0.00 0.00 57 1029.6
20260830073512 19 95 1.6 3.2 0.00 0.00 0.00 57 1029.6
20260830073410 19 73 1.6 3.2 0.00 0.00 0.00 57 1029.6
20260830073309 19 82 1.6 3.2 0.00 0.00 0.00 56 1029.6
20260830073211 20 94 0.0 3.2 0.00 0.00 0.00 56 1029.7
20260830073010 20 99 0.0 1.6 0.00 0.00 0.00 55 1029.7
20260830072910 20 99 0.0 1.6 0.00 0.00 0.00 55 1029.6
20260830072809 20 99 0.0 1.6 0.00 0.00 0.00 55 1029.7
20260830072710 20 99 0.0 1.6 0.00 0.00 0.00 55 1029.7
20260830072511 20 99 0.0 1.6 0.00 0.00 0.00 55 1029.6
20260830072404 20 99 0.0 1.6 0.00 0.00 0.00 55 1029.6
20260830072307 20 99 0.0 1.6 0.00 0.00 0.00 55 1029.5
20260830072206 20 101 0.0 1.6 0.00 0.00 0.00 54 1029.6
20260830072053 20 94 0.0 1.6 0.00 0.00 0.00 54 1029.6
20260830071953 20 90 0.0 1.6 0.00 0.00 0.00 54 1029.6
20260830071850 20 59 0.0 1.6 0.00 0.00 0.00 54 1029.6
20260830071749 20 50 0.0 3.2 0.00 0.00 0.00 54 1029.6
20260830071648 20 50 1.6 3.2 0.00 0.00 0.00 54 1029.6
20260830071547 20 50 1.6 3.2 0.00 0.00 0.00 54 1029.5
20260830071450 20 57 0.0 6.4 0.00 0.00 0.00 54 1029.6
20260830071426 20 59 0.0 6.4 0.00 0.00 0.00 53 1029.5
20260830071356 20 72 0.0 6.4 0.00 0.00 0.00 53 1029.7
20260830071336 20 72 0.0 6.4 0.00 0.00 0.00 53 1029.7
20260830071041 20 73 0.0 6.4 0.00 0.00 0.00 53 1029.6
20260830070939 20 73 0.0 6.4 0.00 0.00 0.00 53 1029.6
20260830070838 20 73 0.0 6.4 0.00 0.00 0.00 52 1029.6
20260830070738 20 90 1.6 6.4 0.00 0.00 0.00 52 1029.6
20260830070636 20 64 3.2 6.4 0.00 0.00 0.00 53 1029.7
20260830070537 20 103 3.2 6.4 0.00 0.00 0.00 53 1029.7
20260830070439 20 109 1.6 6.4 0.00 0.00 0.00 53 1029.6
20260830070337 20 106 0.0 6.4 0.00 0.00 0.00 53 1029.7
20260830070238 20 94 0.0 6.4 0.00 0.00 0.00 53 1029.6
20260830070138 20 94 0.0 6.4 0.00 0.00 0.00 53 1029.6
20260830070038 20 94 1.6 6.4 0.00 0.00 0.00 52 1029.6
20260830065938 20 94 1.6 6.4 0.00 0.00 0.00 52 1029.5
20260830065838 21 105 1.6 6.4 0.00 0.00 0.00 52 1029.5
20260830065737 21 78 1.6 6.4 0.00 0.00 0.00 52 1029.5
20260830065638 21 108 1.6 6.4 0.00 0.00 0.00 52 1029.5
20260830065543 21 66 1.6 6.4 0.00 0.00 0.00 52 1029.5
20260830065437 21 107 3.2 6.4 0.00 0.00 0.00 52 1029.5
20260830065337 21 105 1.6 6.4 0.00 0.00 0.00 52 1029.5
20260830065238 21 82 1.6 6.4 0.00 0.00 0.00 52 1029.5
20260830065134 21 86 3.2 6.4 0.00 0.00 0.00 52 1029.5
20260830065034 21 92 1.6 6.4 0.00 0.00 0.00 52 1029.5
20260830064941 21 111 1.6 6.4 0.00 0.00 0.00 52 1029.6
20260830064918 21 108 1.6 6.4 0.00 0.00 0.00 52 1029.5
20260830064850 21 57 0.0 6.4 0.00 0.00 0.00 53 1029.6
20260830064827 21 49 1.6 6.4 0.00 0.00 0.00 53 1029.6
20260830064527 21 56 3.2 6.4 0.00 0.00 0.00 53 1029.6
20260830064449 21 26 3.2 6.4 0.00 0.00 0.00 53 1029.5
20260830064424 21 98 1.6 4.8 0.00 0.00 0.00 53 1029.5
20260830064352 21 55 0.0 4.8 0.00 0.00 0.00 53 1029.5
20260830064327 21 80 1.6 4.8 0.00 0.00 0.00 54 1029.6
20260830064012 21 76 0.0 4.8 0.00 0.00 0.00 54 1029.5
20260830063909 21 105 1.6 4.8 0.00 0.00 0.00 54 1029.6
20260830063809 21 105 1.6 6.4 0.00 0.00 0.00 54 1029.5
20260830063709 21 105 1.6 11.3 0.00 0.00 0.00 54 1029.4
20260830063513 21 98 3.2 11.3 0.00 0.00 0.00 54 1029.6
20260830063410 21 88 3.2 11.3 0.00 0.00 0.00 54 1029.5
20260830063309 21 101 3.2 11.3 0.00 0.00 0.00 54 1029.5
20260830063209 21 127 3.2 11.3 0.00 0.00 0.00 54 1029.5
20260830063011 21 102 6.4 11.3 0.00 0.00 0.00 54 1029.5
20260830062910 21 97 6.4 11.3 0.00 0.00 0.00 54 1029.4
20260830062811 21 91 4.8 11.3 0.00 0.00 0.00 54 1029.5
20260830062711 21 104 3.2 9.7 0.00 0.00 0.00 54 1029.5
20260830062511 21 84 0.0 9.7 0.00 0.00 0.00 54 1029.6
20260830062411 21 92 1.6 9.7 0.00 0.00 0.00 54 1029.5
20260830062309 21 44 3.2 9.7 0.00 0.00 0.00 54 1029.5
20260830062210 21 44 1.6 9.7 0.00 0.00 0.00 55 1029.5
20260830062010 21 94 3.2 11.3 0.00 0.00 0.00 55 1029.5
20260830061912 21 102 1.6 11.3 0.00 0.00 0.00 54 1029.4
20260830061810 21 99 1.6 11.3 0.00 0.00 0.00 54 1029.5
20260830061709 21 90 1.6 11.3 0.00 0.00 0.00 54 1029.5
20260830061510 21 54 1.6 11.3 0.00 0.00 0.00 54 1029.5
20260830061409 21 89 4.8 11.3 0.00 0.00 0.00 54 1029.5
20260830061309 21 119 6.4 11.3 0.00 0.00 0.00 54 1029.4
20260830061210 21 136 3.2 11.3 0.00 0.00 0.00 54 1029.5
20260830061010 21 121 3.2 12.9 0.00 0.00 0.00 53 1029.4
20260830060910 21 128 6.4 12.9 0.00 0.00 0.00 53 1029.5
20260830060810 21 121 4.8 12.9 0.00 0.00 0.00 53 1029.5
20260830060709 22 111 3.2 12.9 0.00 0.00 0.00 53 1029.4
20260830060511 22 90 3.2 12.9 0.00 0.00 0.00 53 1029.5
20260830060409 22 114 4.8 12.9 0.00 0.00 0.00 53 1029.5
20260830060311 22 92 6.4 12.9 0.00 0.00 0.00 52 1029.4
20260830060209 22 142 6.4 12.9 0.00 0.00 0.00 52 1029.5
20260830060010 22 116 3.2 11.3 0.00 0.00 0.00 51 1029.5
20260830055909 22 105 4.8 11.3 0.00 0.00 0.00 50 1029.6
20260830055810 22 114 3.2 11.3 0.00 0.00 0.00 49 1029.5
20260830055711 22 85 3.2 11.3 0.00 0.00 0.00 48 1029.6
20260830055508 22 142 3.2 11.3 0.00 0.00 0.00 48 1029.6
20260830055412 22 153 1.6 11.3 0.00 0.00 0.00 48 1029.6
20260830055309 22 150 3.2 11.3 0.00 0.00 0.00 47 1029.6
20260830055209 22 130 4.8 11.3 0.00 0.00 0.00 47 1029.5
20260830055009 22 128 3.2 11.3 0.00 0.00 0.00 47 1029.5
20260830054911 22 108 1.6 9.7 0.00 0.00 0.00 47 1029.5
20260830054810 22 107 1.6 9.7 0.00 0.00 0.00 47 1029.4
20260830054709 22 132 0.0 9.7 0.00 0.00 0.00 48 1029.5
20260830054509 22 122 1.6 9.7 0.00 0.00 0.00 48 1029.5
20260830054408 22 123 1.6 9.7 0.00 0.00 0.00 48 1029.6
20260830054310 22 142 3.2 9.7 0.00 0.00 0.00 48 1029.5
20260830054209 22 132 3.2 9.7 0.00 0.00 0.00 48 1029.6
20260830054010 22 107 3.2 9.7 0.00 0.00 0.00 48 1029.5
20260830053912 22 71 3.2 9.7 0.00 0.00 0.00 48 1029.6
20260830053809 22 145 3.2 9.7 0.00 0.00 0.00 49 1029.5
20260830053710 22 155 3.2 9.7 0.00 0.00 0.00 49 1029.6
20260830053511 22 153 6.4 11.3 0.00 0.00 0.00 49 1029.6
20260830053410 22 169 3.2 11.3 0.00 0.00 0.00 49 1029.5
20260830053309 22 160 1.6 11.3 0.00 0.00 0.00 49 1029.5
20260830053210 22 114 1.6 11.3 0.00 0.00 0.00 49 1029.5
20260830053010 22 148 3.2 11.3 0.00 0.00 0.00 49 1029.6
20260830052936 22 138 3.2 11.3 0.00 0.00 0.00 49 1029.5
20260830052916 22 134 3.2 11.3 0.00 0.00 0.00 49 1029.6
20260830052856 22 132 4.8 11.3 0.00 0.00 0.00 49 1029.5
20260830052826 22 113 4.8 11.3 0.00 0.00 0.00 49 1029.6
20260830052511 22 119 6.4 11.3 0.00 0.00 0.00 49 1029.6
20260830052411 22 126 3.2 11.3 0.00 0.00 0.00 49 1029.6
20260830052306 22 147 3.2 9.7 0.00 0.00 0.00 49 1029.7
20260830052203 22 174 3.2 9.7 0.00 0.00 0.00 48 1029.6
20260830052103 22 109 1.6 9.7 0.00 0.00 0.00 48 1029.6
20260830052006 22 128 3.2 9.7 0.00 0.00 0.00 49 1029.6
20260830051903 22 125 4.8 9.7 0.00 0.00 0.00 48 1029.6
20260830051802 22 165 6.4 9.7 0.00 0.00 0.00 48 1029.7
20260830051710 22 96 3.2 11.3 0.00 0.00 0.00 48 1029.6
20260830051558 22 85 1.6 11.3 0.00 0.00 0.00 49 1029.6
20260830051458 22 148 1.6 11.3 0.00 0.00 0.00 49 1029.6
20260830051350 22 117 3.2 11.3 0.00 0.00 0.00 48 1029.6
20260830051250 22 119 3.2 11.3 0.00 0.00 0.00 48 1029.6
20260830051146 22 105 3.2 11.3 0.00 0.00 0.00 49 1029.7
20260830051037 22 161 3.2 11.3 0.00 0.00 0.00 49 1029.6
20260830050939 23 101 3.2 11.3 0.00 0.00 0.00 48 1029.6
20260830050839 23 138 4.8 11.3 0.00 0.00 0.00 49 1029.6
20260830050738 23 148 3.2 11.3 0.00 0.00 0.00 49 1029.7
20260830050639 23 148 3.2 9.7 0.00 0.00 0.00 49 1029.7
20260830050538 23 141 4.8 9.7 0.00 0.00 0.00 49 1029.7
20260830050438 23 159 3.2 9.7 0.00 0.00 0.00 49 1029.7
20260830050337 23 157 1.6 9.7 0.00 0.00 0.00 49 1029.7
20260830050241 23 134 1.6 9.7 0.00 0.00 0.00 50 1029.6
20260830050212 23 128 1.6 9.7 0.00 0.00 0.00 50 1029.7
20260830050038 23 157 3.2 9.7 0.00 0.00 0.00 50 1029.6
20260830045938 23 167 3.2 9.7 0.00 0.00 0.00 50 1029.7
20260830045837 23 148 3.2 9.7 0.00 0.00 0.00 50 1029.7
20260830045745 23 190 3.2 9.7 0.00 0.00 0.00 50 1029.6
20260830045637 23 146 3.2 9.7 0.00 0.00 0.00 50 1029.8
20260830045538 23 83 3.2 9.7 0.00 0.00 0.00 50 1029.6
20260830045437 23 148 4.8 9.7 0.00 0.00 0.00 50 1029.6
20260830045339 23 140 4.8 9.7 0.00 0.00 0.00 50 1029.7
20260830045237 23 155 4.8 9.7 0.00 0.00 0.00 49 1029.7
20260830045139 23 124 4.8 9.7 0.00 0.00 0.00 49 1029.7
20260830045038 23 165 3.2 9.7 0.00 0.00 0.00 48 1029.7
20260830044939 23 175 3.2 9.7 0.00 0.00 0.00 49 1029.7
20260830044834 23 171 3.2 9.7 0.00 0.00 0.00 49 1029.7
20260830044732 23 169 3.2 9.7 0.00 0.00 0.00 49 1029.7
20260830044631 23 144 3.2 9.7 0.00 0.00 0.00 49 1029.7
20260830044528 23 160 3.2 9.7 0.00 0.00 0.00 48 1029.7
20260830044422 23 151 3.2 9.7 0.00 0.00 0.00 48 1029.7
20260830044317 23 130 3.2 8.0 0.00 0.00 0.00 47 1029.6
20260830044217 23 172 3.2 12.9 0.00 0.00 0.00 47 1029.6
20260830044126 23 138 3.2 12.9 0.00 0.00 0.00 47 1029.7
20260830044013 23 190 3.2 12.9 0.00 0.00 0.00 47 1029.7
20260830043910 23 138 3.2 12.9 0.00 0.00 0.00 47 1029.8
20260830043813 23 172 3.2 12.9 0.00 0.00 0.00 47 1029.6
20260830043712 22 132 3.2 12.9 0.00 0.00 0.00 47 1029.7
20260830043511 22 155 6.4 12.9 0.00 0.00 0.00 47 1029.7
20260830043409 22 144 8.0 12.9 0.00 0.00 0.00 47 1029.7
20260830043309 22 162 6.4 12.9 0.00 0.00 0.00 47 1029.7
20260830043209 22 187 6.4 11.3 0.00 0.00 0.00 47 1029.7
20260830043011 22 170 3.2 12.9 0.00 0.00 0.00 46 1029.7
20260830042910 22 136 3.2 12.9 0.00 0.00 0.00 46 1029.7
20260830042809 22 176 4.8 12.9 0.00 0.00 0.00 45 1029.7
20260830042712 22 117 3.2 12.9 0.00 0.00 0.00 45 1029.6
20260830042511 22 157 4.8 12.9 0.00 0.00 0.00 43 1029.7
20260830042409 22 117 3.2 12.9 0.00 0.00 0.00 43 1029.7
20260830042309 22 101 4.8 12.9 0.00 0.00 0.00 43 1029.6
20260830042204 22 106 4.8 12.9 0.00 0.00 0.00 43 1029.6
20260830042104 22 99 3.2 12.9 0.00 0.00 0.00 43 1029.7
20260830042003 22 124 3.2 12.9 0.00 0.00 0.00 43 1029.7
20260830041859 22 145 3.2 12.9 0.00 0.00 0.00 42 1029.7
20260830041753 22 124 0.0 12.9 0.00 0.00 0.00 43 1029.7
20260830041654 22 171 3.2 12.9 0.00 0.00 0.00 42 1029.7
20260830041551 22 180 6.4 12.9 0.00 0.00 0.00 42 1029.6
20260830041445 22 147 4.8 12.9 0.00 0.00 0.00 43 1029.6
20260830041347 22 179 4.8 12.9 0.00 0.00 0.00 43 1029.6
20260830041244 22 147 4.8 12.9 0.00 0.00 0.00 43 1029.7
20260830041144 22 107 1.6 12.9 0.00 0.00 0.00 44 1029.6
20260830041044 22 102 3.2 12.9 0.00 0.00 0.00 44 1029.7
20260830040950 22 152 4.8 12.9 0.00 0.00 0.00 43 1029.6
20260830040926 22 95 3.2 12.9 0.00 0.00 0.00 44 1029.7
20260830040905 22 133 3.2 12.9 0.00 0.00 0.00 44 1029.6
20260830040846 22 156 1.6 12.9 0.00 0.00 0.00 43 1029.7